Wetterdaten: Montag, 09.11.2020
Datum Zeit Temp. Aussen Temp. o. S. Temp +5cm Feuchte Auss Luftdruck Regen Sonnenschein Regendauer Solar Windben Empfang
09.11.2020 00:00 11,6 C 10,0 C 8,9 C 91 % 1023,3 hPa 0,0 l/m 0 min 2 min 0 W/m 3,2 km/h (1 Bft) 97,87 %
09.11.2020 00:02 11,6 C 10,0 C 8,9 C 92 % 1023,4 hPa 0,0 l/m 0 min 2 min 0 W/m 3,2 km/h (1 Bft) 95,45 %
09.11.2020 00:04 11,6 C 10,0 C 8,9 C 92 % 1023,3 hPa 0,0 l/m 0 min 2 min 0 W/m 0,0 km/h (0 Bft) 95,74 %
09.11.2020 00:07 11,6 C 10,0 C 8,9 C 92 % 1023,3 hPa 0,0 l/m 0 min 0 min 0 W/m 0,0 km/h (0 Bft) 95,71 %
09.11.2020 00:08 11,6 C 10,0 C 8,9 C 92 % 1023,3 hPa 0,0 l/m 0 min 0 min 0 W/m 0,0 km/h (0 Bft) 100,00 %
09.11.2020 00:10 11,6 C 10,0 C 8,9 C 92 % 1023,3 hPa 0,0 l/m 0 min 0 min 0 W/m 3,2 km/h (1 Bft) 97,87 %
09.11.2020 00:12 11,6 C 10,0 C 8,9 C 92 % 1023,3 hPa 0,0 l/m 0 min 0 min 0 W/m 0,0 km/h (0 Bft) 97,83 %
09.11.2020 00:14 11,6 C 10,0 C 8,9 C 92 % 1023,3 hPa 0,0 l/m 0 min 0 min 0 W/m 3,2 km/h (1 Bft) 97,87 %
09.11.2020 00:16 11,6 C 10,0 C 8,9 C 92 % 1023,4 hPa 0,0 l/m 0 min 0 min 0 W/m 12,9 km/h (3 Bft) 93,62 %
09.11.2020 00:18 11,6 C 10,0 C 8,9 C 92 % 1023,4 hPa 0,0 l/m 0 min 0 min 0 W/m 3,2 km/h (1 Bft) 97,87 %
09.11.2020 00:20 11,5 C 10,0 C 8,9 C 92 % 1023,4 hPa 0,0 l/m 0 min 0 min 0 W/m 6,4 km/h (2 Bft) 97,87 %
09.11.2020 00:22 11,6 C 10,0 C 8,9 C 92 % 1023,4 hPa 0,0 l/m 0 min 0 min 0 W/m 0,0 km/h (0 Bft) 97,87 %
09.11.2020 00:24 11,5 C 10,0 C 8,9 C 92 % 1023,4 hPa 0,0 l/m 0 min 0 min 0 W/m 0,0 km/h (0 Bft) 97,83 %
09.11.2020 00:26 11,5 C 10,0 C 8,9 C 92 % 1023,4 hPa 0,0 l/m 0 min 0 min 0 W/m 0,0 km/h (0 Bft) 97,87 %
09.11.2020 00:28 11,5 C 10,0 C 8,9 C 92 % 1023,4 hPa 0,0 l/m 0 min 0 min 0 W/m 0,0 km/h (0 Bft) 97,87 %
09.11.2020 00:30 11,5 C 10,0 C 8,9 C 92 % 1023,3 hPa 0,0 l/m 0 min 0 min 0 W/m 0,0 km/h (0 Bft) 97,87 %
09.11.2020 00:32 11,5 C 10,0 C 8,9 C 92 % 1023,3 hPa 0,0 l/m 0 min 0 min 0 W/m 0,0 km/h (0 Bft) 97,62 %
09.11.2020 00:34 11,5 C 10,0 C 8,9 C 93 % 1023,3 hPa 0,0 l/m 0 min 0 min 0 W/m 0,0 km/h (0 Bft) 97,87 %
09.11.2020 00:36 11,5 C 10,0 C 8,9 C 93 % 1023,3 hPa 0,0 l/m 0 min 0 min 0 W/m 0,0 km/h (0 Bft) 95,65 %
09.11.2020 00:38 11,5 C 10,0 C 9,5 C 93 % 1023,3 hPa 0,0 l/m 0 min 0 min 0 W/m 3,2 km/h (1 Bft) 97,87 %
09.11.2020 00:40 11,5 C 10,0 C 9,5 C 93 % 1023,3 hPa 0,0 l/m 0 min 0 min 0 W/m 3,2 km/h (1 Bft) 100,00 %
09.11.2020 00:42 11,5 C 10,0 C 9,5 C 93 % 1023,2 hPa 0,0 l/m 0 min 0 min 0 W/m 3,2 km/h (1 Bft) 97,87 %
09.11.2020 00:44 11,5 C 10,6 C 9,5 C 93 % 1023,2 hPa 0,0 l/m 0 min 0 min 0 W/m 6,4 km/h (2 Bft) 100,00 %
09.11.2020 00:46 11,5 C 10,6 C 9,5 C 94 % 1023,2 hPa 0,0 l/m 0 min 0 min 0 W/m 6,4 km/h (2 Bft) 97,87 %
09.11.2020 00:48 11,5 C 10,6 C 9,5 C 94 % 1023,3 hPa 0,0 l/m 0 min 0 min 0 W/m 6,4 km/h (2 Bft) 100,00 %
09.11.2020 00:50 11,5 C 10,6 C 9,5 C 94 % 1023,3 hPa 0,2 l/m 0 min 0 min 0 W/m 12,9 km/h (3 Bft) 100,00 %
09.11.2020 00:52 11,5 C 10,6 C 9,5 C 94 % 1023,3 hPa 0,0 l/m 0 min 0 min 0 W/m 12,9 km/h (3 Bft) 100,00 %
09.11.2020 00:54 11,5 C 10,6 C 9,5 C 94 % 1023,2 hPa 0,0 l/m 0 min 0 min 0 W/m 16,1 km/h (3 Bft) 100,00 %
09.11.2020 00:56 11,5 C 10,6 C 9,5 C 94 % 1023,2 hPa 0,0 l/m 0 min 0 min 0 W/m 12,9 km/h (3 Bft) 100,00 %
09.11.2020 00:58 11,5 C 10,6 C 9,5 C 94 % 1023,2 hPa 0,0 l/m 0 min 0 min 0 W/m 12,9 km/h (3 Bft) 100,00 %
09.11.2020 01:00 11,5 C 10,6 C 9,5 C 94 % 1023,2 hPa 0,0 l/m 0 min 0 min 0 W/m 19,3 km/h (3 Bft) 97,83 %
09.11.2020 01:02 11,5 C 10,6 C 9,5 C 94 % 1023,2 hPa 0,0 l/m 0 min 0 min 0 W/m 3,2 km/h (1 Bft) 100,00 %
09.11.2020 01:04 11,5 C 10,6 C 9,5 C 94 % 1023,1 hPa 0,0 l/m 0 min 0 min 0 W/m 0,0 km/h (0 Bft) 97,87 %
09.11.2020 01:06 11,5 C 10,6 C 9,5 C 95 % 1023,1 hPa 0,0 l/m 0 min 0 min 0 W/m 3,2 km/h (1 Bft) 100,00 %
09.11.2020 01:08 11,5 C 10,6 C 9,5 C 95 % 1023,1 hPa 0,0 l/m 0 min 0 min 0 W/m 0,0 km/h (0 Bft) 100,00 %
09.11.2020 01:10 11,5 C 10,6 C 9,5 C 95 % 1023,1 hPa 0,0 l/m 0 min 0 min 0 W/m 0,0 km/h (0 Bft) 97,87 %
09.11.2020 01:12 11,5 C 10,0 C 9,5 C 95 % 1023,0 hPa 0,0 l/m 0 min 0 min 0 W/m 3,2 km/h (1 Bft) 97,83 %
09.11.2020 01:14 11,5 C 10,0 C 9,5 C 95 % 1023,1 hPa 0,0 l/m 0 min 0 min 0 W/m 0,0 km/h (0 Bft) 100,00 %
09.11.2020 01:16 11,5 C 10,0 C 9,5 C 95 % 1023,0 hPa 0,0 l/m 0 min 0 min 0 W/m 0,0 km/h (0 Bft) 100,00 %
09.11.2020 01:18 11,5 C 10,0 C 9,5 C 95 % 1023,0 hPa 0,0 l/m 0 min 0 min 0 W/m 0,0 km/h (0 Bft) 100,00 %
09.11.2020 01:20 11,5 C 10,0 C 9,5 C 95 % 1023,0 hPa 0,0 l/m 0 min 0 min 0 W/m 0,0 km/h (0 Bft) 100,00 %
09.11.2020 01:22 11,4 C 10,0 C 8,9 C 95 % 1023,0 hPa 0,0 l/m 0 min 0 min 0 W/m 0,0 km/h (0 Bft) 93,48 %
09.11.2020 01:24 11,4 C 10,0 C 8,9 C 95 % 1023,0 hPa 0,0 l/m 0 min 0 min 0 W/m 0,0 km/h (0 Bft) 97,87 %
09.11.2020 01:26 11,4 C 10,0 C 8,9 C 95 % 1023,0 hPa 0,0 l/m 0 min 0 min 0 W/m 0,0 km/h (0 Bft) 95,74 %
09.11.2020 01:28 11,4 C 10,0 C 9,5 C 95 % 1023,1 hPa 0,0 l/m 0 min 0 min 0 W/m 0,0 km/h (0 Bft) 97,87 %
09.11.2020 01:30 11,4 C 10,0 C 9,5 C 95 % 1023,1 hPa 0,0 l/m 0 min 0 min 0 W/m 0,0 km/h (0 Bft) 97,87 %
09.11.2020 01:32 11,4 C 10,0 C 9,5 C 95 % 1023,1 hPa 0,0 l/m 0 min 0 min 0 W/m 0,0 km/h (0 Bft) 97,87 %
09.11.2020 01:34 11,4 C 10,0 C 9,5 C 95 % 1023,2 hPa 0,0 l/m 0 min 0 min 0 W/m 3,2 km/h (1 Bft) 95,65 %
09.11.2020 01:36 11,3 C 10,0 C 9,5 C 95 % 1023,2 hPa 0,0 l/m 0 min 0 min 0 W/m 0,0 km/h (0 Bft) 95,74 %
09.11.2020 01:38 11,3 C 10,0 C 9,5 C 95 % 1023,1 hPa 0,0 l/m 0 min 0 min 0 W/m 0,0 km/h (0 Bft) 95,74 %
09.11.2020 01:40 11,3 C 10,0 C 9,5 C 95 % 1023,0 hPa 0,0 l/m 0 min 0 min 0 W/m 0,0 km/h (0 Bft) 93,62 %
09.11.2020 01:42 11,3 C 10,0 C 8,9 C 95 % 1023,0 hPa 0,0 l/m 0 min 0 min 0 W/m 0,0 km/h (0 Bft) 95,74 %
09.11.2020 01:44 11,3 C 10,0 C 8,9 C 95 % 1023,0 hPa 0,0 l/m 0 min 0 min 0 W/m 0,0 km/h (0 Bft) 93,62 %
09.11.2020 01:46 11,3 C 10,0 C 9,5 C 95 % 1023,1 hPa 0,0 l/m 0 min 0 min 0 W/m 0,0 km/h (0 Bft) 95,65 %
09.11.2020 01:48 11,2 C 10,0 C 9,5 C 95 % 1023,1 hPa 0,0 l/m 0 min 0 min 0 W/m 0,0 km/h (0 Bft) 97,87 %
09.11.2020 01:50 11,2 C 10,0 C 9,5 C 95 % 1023,1 hPa 0,0 l/m 0 min 0 min 0 W/m 0,0 km/h (0 Bft) 97,87 %
09.11.2020 01:52 11,2 C 10,0 C 9,5 C 95 % 1023,1 hPa 0,0 l/m 0 min 0 min 0 W/m 0,0 km/h (0 Bft) 100,00 %
09.11.2020 01:54 11,2 C 10,0 C 9,5 C 95 % 1023,2 hPa 0,0 l/m 0 min 0 min 0 W/m 0,0 km/h (0 Bft) 95,74 %
09.11.2020 01:56 11,2 C 10,0 C 9,5 C 95 % 1023,2 hPa 0,0 l/m 0 min 0 min 0 W/m 0,0 km/h (0 Bft) 95,74 %
09.11.2020 01:58 11,1 C 10,6 C 9,5 C 95 % 1023,2 hPa 0,0 l/m 0 min 0 min 0 W/m 0,0 km/h (0 Bft) 95,65 %
09.11.2020 02:00 11,1 C 10,6 C 9,5 C 95 % 1023,3 hPa 0,0 l/m 0 min 0 min 0 W/m 0,0 km/h (0 Bft) 93,62 %
09.11.2020 02:02 11,1 C 10,6 C 9,5 C 95 % 1023,2 hPa 0,0 l/m 0 min 0 min 0 W/m 0,0 km/h (0 Bft) 95,74 %
09.11.2020 02:04 11,1 C 10,6 C 9,5 C 95 % 1023,2 hPa 0,0 l/m 0 min 0 min 0 W/m 3,2 km/h (1 Bft) 93,62 %
09.11.2020 02:06 11,1 C 10,6 C 9,5 C 95 % 1023,2 hPa 0,0 l/m 0 min 0 min 0 W/m 0,0 km/h (0 Bft) 95,74 %
09.11.2020 02:08 11,1 C 10,6 C 9,5 C 95 % 1023,2 hPa 0,0 l/m 0 min 0 min 0 W/m 0,0 km/h (0 Bft) 95,74 %
09.11.2020 02:10 11,1 C 10,6 C 9,5 C 95 % 1023,2 hPa 0,0 l/m 0 min 0 min 0 W/m 0,0 km/h (0 Bft) 97,83 %
09.11.2020 02:12 11,1 C 10,6 C 9,5 C 95 % 1023,2 hPa 0,0 l/m 0 min 0 min 0 W/m 0,0 km/h (0 Bft) 95,74 %
09.11.2020 02:14 11,1 C 10,6 C 9,5 C 95 % 1023,2 hPa 0,0 l/m 0 min 0 min 0 W/m 0,0 km/h (0 Bft) 97,87 %
09.11.2020 02:16 11,1 C 10,6 C 9,5 C 96 % 1023,2 hPa 0,0 l/m 0 min 0 min 0 W/m 0,0 km/h (0 Bft) 97,87 %
09.11.2020 02:18 11,2 C 10,6 C 9,5 C 96 % 1023,2 hPa 0,0 l/m 0 min 0 min 0 W/m 0,0 km/h (0 Bft) 95,74 %
09.11.2020 02:20 11,1 C 10,6 C 9,5 C 96 % 1023,2 hPa 0,0 l/m 0 min 0 min 0 W/m 0,0 km/h (0 Bft) 95,74 %
09.11.2020 02:22 11,1 C 10,6 C 9,5 C 96 % 1023,3 hPa 0,0 l/m 0 min 0 min 0 W/m 3,2 km/h (1 Bft) 97,83 %
09.11.2020 02:24 11,1 C 10,6 C 9,5 C 96 % 1023,2 hPa 0,0 l/m 0 min 0 min 0 W/m 0,0 km/h (0 Bft) 95,74 %
09.11.2020 02:26 11,1 C 10,6 C 9,5 C 96 % 1023,3 hPa 0,0 l/m 0 min 0 min 0 W/m 6,4 km/h (2 Bft) 97,87 %
09.11.2020 02:28 11,1 C 10,6 C 9,5 C 96 % 1023,4 hPa 0,0 l/m 0 min 0 min 0 W/m 12,9 km/h (3 Bft) 97,87 %
09.11.2020 02:30 11,2 C 10,6 C 9,5 C 96 % 1023,4 hPa 0,0 l/m 0 min 0 min 0 W/m 3,2 km/h (1 Bft) 97,87 %
09.11.2020 02:32 11,2 C 10,6 C 9,5 C 96 % 1023,4 hPa 0,0 l/m 0 min 0 min 0 W/m 3,2 km/h (1 Bft) 97,87 %
09.11.2020 02:34 11,1 C 10,6 C 9,5 C 96 % 1023,5 hPa 0,0 l/m 0 min 0 min 0 W/m 0,0 km/h (0 Bft) 97,83 %
09.11.2020 02:36 11,2 C 10,6 C 9,5 C 96 % 1023,4 hPa 0,0 l/m 0 min 0 min 0 W/m 0,0 km/h (0 Bft) 97,87 %
09.11.2020 02:38 11,1 C 10,0 C 9,5 C 96 % 1023,4 hPa 0,0 l/m 0 min 0 min 0 W/m 0,0 km/h (0 Bft) 95,74 %
09.11.2020 02:40 11,1 C 10,0 C 9,5 C 96 % 1023,4 hPa 0,0 l/m 0 min 0 min 0 W/m 3,2 km/h (1 Bft) 97,87 %
09.11.2020 02:42 11,1 C 10,6 C 9,5 C 96 % 1023,4 hPa 0,0 l/m 0 min 0 min 0 W/m 12,9 km/h (3 Bft) 95,74 %
09.11.2020 02:44 11,1 C 10,0 C 9,5 C 96 % 1023,4 hPa 0,0 l/m 0 min 0 min 0 W/m 0,0 km/h (0 Bft) 95,65 %
09.11.2020 02:46 11,1 C 10,0 C 9,5 C 96 % 1023,4 hPa 0,0 l/m 0 min 0 min 0 W/m 0,0 km/h (0 Bft) 100,00 %
09.11.2020 02:48 11,1 C 10,0 C 9,5 C 96 % 1023,4 hPa 0,0 l/m 0 min 0 min 0 W/m 0,0 km/h (0 Bft) 97,87 %
09.11.2020 02:50 11,1 C 10,0 C 9,5 C 96 % 1023,4 hPa 0,0 l/m 0 min 0 min 0 W/m 0,0 km/h (0 Bft) 100,00 %
09.11.2020 02:52 11,1 C 10,0 C 8,9 C 96 % 1023,4 hPa 0,0 l/m 0 min 0 min 0 W/m 0,0 km/h (0 Bft) 100,00 %
09.11.2020 02:54 11,1 C 10,0 C 8,9 C 96 % 1023,3 hPa 0,0 l/m 0 min 0 min 0 W/m 0,0 km/h (0 Bft) 100,00 %
09.11.2020 02:56 11,1 C 10,0 C 8,9 C 96 % 1023,3 hPa 0,0 l/m 0 min 0 min 0 W/m 0,0 km/h (0 Bft) 97,83 %
09.11.2020 02:58 11,1 C 10,0 C 8,9 C 96 % 1023,2 hPa 0,0 l/m 0 min 0 min 0 W/m 0,0 km/h (0 Bft) 100,00 %
09.11.2020 03:00 11,0 C 10,0 C 8,9 C 96 % 1023,3 hPa 0,0 l/m 0 min 0 min 0 W/m 3,2 km/h (1 Bft) 100,00 %
09.11.2020 03:02 11,0 C 10,0 C 8,9 C 96 % 1023,3 hPa 0,0 l/m 0 min 0 min 0 W/m 3,2 km/h (1 Bft) 100,00 %
09.11.2020 03:04 11,0 C 10,0 C 9,5 C 96 % 1023,3 hPa 0,0 l/m 0 min 0 min 0 W/m 3,2 km/h (1 Bft) 100,00 %
09.11.2020 03:06 11,0 C 10,0 C 9,5 C 96 % 1023,2 hPa 0,0 l/m 0 min 0 min 0 W/m 6,4 km/h (2 Bft) 100,00 %
09.11.2020 03:08 11,0 C 10,0 C 9,5 C 96 % 1023,3 hPa 0,0 l/m 0 min 0 min 0 W/m 3,2 km/h (1 Bft) 100,00 %
09.11.2020 03:20 11,0 C 10,6 C 9,5 C 96 % 1023,2 hPa 0,0 l/m 0 min 0 min 0 W/m 16,1 km/h (3 Bft) 100,00 %
09.11.2020 03:22 11,0 C 10,6 C 10,0 C 96 % 1023,2 hPa 0,0 l/m 0 min 0 min 0 W/m 12,9 km/h (3 Bft) 95,74 %
09.11.2020 03:24 11,0 C 10,6 C 10,0 C 96 % 1023,2 hPa 0,0 l/m 0 min 0 min 0 W/m 6,4 km/h (2 Bft) 100,00 %
09.11.2020 03:26 11,0 C 10,6 C 10,0 C 96 % 1023,3 hPa 0,0 l/m 0 min 0 min 0 W/m 12,9 km/h (3 Bft) 100,00 %
09.11.2020 03:28 11,0 C 10,6 C 10,0 C 96 % 1023,3 hPa 0,0 l/m 0 min 0 min 0 W/m 16,1 km/h (3 Bft) 100,00 %
09.11.2020 03:30 11,0 C 10,6 C 10,0 C 96 % 1023,3 hPa 0,0 l/m 0 min 0 min 0 W/m 12,9 km/h (3 Bft) 100,00 %
09.11.2020 03:32 11,1 C 10,6 C 10,0 C 96 % 1023,3 hPa 0,0 l/m 0 min 0 min 0 W/m 3,2 km/h (1 Bft) 97,92 %
09.11.2020 03:34 11,1 C 10,6 C 10,0 C 96 % 1023,3 hPa 0,0 l/m 0 min 0 min 0 W/m 12,9 km/h (3 Bft) 97,83 %
09.11.2020 03:36 11,1 C 10,6 C 10,0 C 96 % 1023,3 hPa 0,0 l/m 0 min 0 min 0 W/m 12,9 km/h (3 Bft) 95,74 %
09.11.2020 03:38 11,1 C 10,6 C 10,0 C 96 % 1023,3 hPa 0,0 l/m 0 min 0 min 0 W/m 16,1 km/h (3 Bft) 97,87 %
09.11.2020 03:40 11,1 C 10,6 C 10,0 C 96 % 1023,3 hPa 0,0 l/m 0 min 0 min 0 W/m 0,0 km/h (0 Bft) 97,92 %
09.11.2020 03:42 11,1 C 10,6 C 10,0 C 96 % 1023,3 hPa 0,0 l/m 0 min 0 min 0 W/m 12,9 km/h (3 Bft) 97,87 %
09.11.2020 03:44 11,1 C 10,6 C 10,0 C 96 % 1023,3 hPa 0,0 l/m 0 min 0 min 0 W/m 12,9 km/h (3 Bft) 95,74 %
09.11.2020 03:46 11,1 C 10,6 C 10,0 C 96 % 1023,3 hPa 0,0 l/m 0 min 0 min 0 W/m 16,1 km/h (3 Bft) 95,74 %
09.11.2020 03:48 11,1 C 10,6 C 10,0 C 96 % 1023,3 hPa 0,0 l/m 0 min 0 min 0 W/m 6,4 km/h (2 Bft) 97,87 %
09.11.2020 03:50 11,1 C 10,6 C 10,0 C 96 % 1023,2 hPa 0,0 l/m 0 min 0 min 0 W/m 3,2 km/h (1 Bft) 95,74 %
09.11.2020 03:52 11,1 C 10,6 C 10,0 C 96 % 1023,2 hPa 0,0 l/m 0 min 0 min 0 W/m 12,9 km/h (3 Bft) 95,74 %
09.11.2020 03:54 11,1 C 10,6 C 10,0 C 96 % 1023,1 hPa 0,0 l/m 0 min 0 min 0 W/m 6,4 km/h (2 Bft) 97,56 %
09.11.2020 03:56 11,2 C 10,6 C 10,0 C 96 % 1023,1 hPa 0,0 l/m 0 min 0 min 0 W/m 0,0 km/h (0 Bft) 55,32 %
09.11.2020 03:58 11,1 C 10,6 C 10,0 C 96 % 1023,1 hPa 0,0 l/m 0 min 0 min 0 W/m 6,4 km/h (2 Bft) 97,67 %
09.11.2020 04:00 11,2 C 10,6 C 10,0 C 96 % 1023,1 hPa 0,0 l/m 0 min 2 min 0 W/m 3,2 km/h (1 Bft) 96,30 %
09.11.2020 04:02 11,2 C 10,6 C 10,0 C 96 % 1023,0 hPa 0,0 l/m 0 min 2 min 0 W/m 3,2 km/h (1 Bft) 97,87 %
09.11.2020 04:04 11,2 C 10,6 C 10,0 C 96 % 1023,0 hPa 0,0 l/m 0 min 0 min 0 W/m 3,2 km/h (1 Bft) 95,92 %
09.11.2020 04:06 11,2 C 10,6 C 10,0 C 96 % 1023,0 hPa 0,0 l/m 0 min 0 min 0 W/m 3,2 km/h (1 Bft) 95,74 %
09.11.2020 04:08 11,2 C 10,6 C 10,0 C 96 % 1023,0 hPa 0,0 l/m 0 min 0 min 0 W/m 0,0 km/h (0 Bft) 97,87 %
09.11.2020 04:10 11,2 C 10,6 C 10,0 C 96 % 1023,0 hPa 0,0 l/m 0 min 0 min 0 W/m 6,4 km/h (2 Bft) 95,74 %
09.11.2020 04:12 11,2 C 10,6 C 10,0 C 96 % 1022,9 hPa 0,0 l/m 0 min 0 min 0 W/m 0,0 km/h (0 Bft) 95,74 %
09.11.2020 04:14 11,3 C 10,6 C 10,0 C 96 % 1022,9 hPa 0,0 l/m 0 min 0 min 0 W/m 0,0 km/h (0 Bft) 95,92 %
09.11.2020 04:16 11,3 C 10,6 C 9,5 C 96 % 1022,8 hPa 0,0 l/m 0 min 0 min 0 W/m 0,0 km/h (0 Bft) 91,43 %
09.11.2020 04:18 11,3 C 10,6 C 9,5 C 96 % 1022,8 hPa 0,0 l/m 0 min 0 min 0 W/m 3,2 km/h (1 Bft) 96,23 %
09.11.2020 04:20 11,3 C 10,6 C 9,5 C 96 % 1022,8 hPa 0,0 l/m 0 min 0 min 0 W/m 0,0 km/h (0 Bft) 96,00 %
09.11.2020 04:22 11,3 C 10,6 C 9,5 C 96 % 1022,8 hPa 0,0 l/m 0 min 0 min 0 W/m 0,0 km/h (0 Bft) 93,88 %
09.11.2020 04:24 11,3 C 10,6 C 10,0 C 96 % 1022,9 hPa 0,0 l/m 0 min 2 min 0 W/m 0,0 km/h (0 Bft) 97,14 %
09.11.2020 04:26 11,3 C 10,6 C 10,0 C 96 % 1022,9 hPa 0,0 l/m 0 min 2 min 0 W/m 0,0 km/h (0 Bft) 95,74 %
09.11.2020 04:28 11,3 C 10,6 C 9,5 C 96 % 1022,9 hPa 0,0 l/m 0 min 2 min 0 W/m 0,0 km/h (0 Bft) 94,34 %
09.11.2020 04:30 11,3 C 10,6 C 9,5 C 96 % 1022,9 hPa 0,0 l/m 0 min 2 min 0 W/m 0,0 km/h (0 Bft) 96,00 %
09.11.2020 04:32 11,3 C 10,0 C 9,5 C 96 % 1022,8 hPa 0,0 l/m 0 min 0 min 0 W/m 3,2 km/h (1 Bft) 95,74 %
09.11.2020 04:34 11,3 C 10,0 C 9,5 C 96 % 1022,7 hPa 0,0 l/m 0 min 0 min 0 W/m 3,2 km/h (1 Bft) 93,62 %
09.11.2020 04:36 11,3 C 10,0 C 9,5 C 96 % 1022,8 hPa 0,0 l/m 0 min 0 min 0 W/m 0,0 km/h (0 Bft) 95,92 %
09.11.2020 04:38 11,3 C 10,0 C 9,5 C 96 % 1022,8 hPa 0,0 l/m 0 min 0 min 0 W/m 0,0 km/h (0 Bft) 97,14 %
09.11.2020 04:40 11,2 C 10,0 C 9,5 C 96 % 1022,7 hPa 0,0 l/m 0 min 0 min 0 W/m 0,0 km/h (0 Bft) 97,87 %
09.11.2020 04:42 11,2 C 10,0 C 9,5 C 96 % 1022,7 hPa 0,0 l/m 0 min 0 min 0 W/m 0,0 km/h (0 Bft) 97,87 %
09.11.2020 04:44 11,2 C 10,0 C 9,5 C 96 % 1022,7 hPa 0,0 l/m 0 min 0 min 0 W/m 0,0 km/h (0 Bft) 97,87 %
09.11.2020 04:46 11,2 C 10,0 C 9,5 C 96 % 1022,7 hPa 0,0 l/m 0 min 0 min 0 W/m 0,0 km/h (0 Bft) 95,65 %
09.11.2020 04:48 11,2 C 10,0 C 9,5 C 96 % 1022,7 hPa 0,0 l/m 0 min 0 min 0 W/m 0,0 km/h (0 Bft) 92,59 %
09.11.2020 04:50 11,2 C 10,0 C 9,5 C 96 % 1022,6 hPa 0,0 l/m 0 min 0 min 0 W/m 0,0 km/h (0 Bft) 95,92 %
09.11.2020 04:52 11,1 C 10,0 C 9,5 C 96 % 1022,5 hPa 0,0 l/m 0 min 0 min 0 W/m 0,0 km/h (0 Bft) 97,87 %
09.11.2020 04:54 11,1 C 10,0 C 9,5 C 96 % 1022,6 hPa 0,0 l/m 0 min 0 min 0 W/m 3,2 km/h (1 Bft) 97,87 %
09.11.2020 04:56 11,1 C 10,0 C 9,5 C 96 % 1022,6 hPa 0,0 l/m 0 min 0 min 0 W/m 0,0 km/h (0 Bft) 97,96 %
09.11.2020 04:58 11,1 C 10,0 C 9,5 C 96 % 1022,7 hPa 0,0 l/m 0 min 0 min 0 W/m 3,2 km/h (1 Bft) 97,87 %
09.11.2020 05:00 11,1 C 10,0 C 9,5 C 96 % 1022,8 hPa 0,0 l/m 0 min 0 min 0 W/m 3,2 km/h (1 Bft) 95,74 %
09.11.2020 05:02 11,1 C 10,0 C 9,5 C 96 % 1022,7 hPa 0,0 l/m 0 min 0 min 0 W/m 0,0 km/h (0 Bft) 95,74 %
09.11.2020 05:04 11,0 C 10,0 C 9,5 C 96 % 1022,8 hPa 0,0 l/m 0 min 0 min 0 W/m 3,2 km/h (1 Bft) 97,87 %
09.11.2020 05:06 11,0 C 10,0 C 9,5 C 96 % 1022,8 hPa 0,0 l/m 0 min 2 min 0 W/m 0,0 km/h (0 Bft) 97,14 %
09.11.2020 05:08 11,0 C 10,0 C 9,5 C 96 % 1022,8 hPa 0,0 l/m 0 min 0 min 0 W/m 0,0 km/h (0 Bft) 97,83 %
09.11.2020 05:10 11,1 C 10,0 C 9,5 C 96 % 1022,7 hPa 0,0 l/m 0 min 0 min 0 W/m 0,0 km/h (0 Bft) 97,87 %
09.11.2020 05:12 11,0 C 10,0 C 9,5 C 96 % 1022,7 hPa 0,0 l/m 0 min 2 min 0 W/m 0,0 km/h (0 Bft) 98,11 %
09.11.2020 05:14 11,0 C 10,0 C 9,5 C 96 % 1022,7 hPa 0,0 l/m 0 min 2 min 0 W/m 0,0 km/h (0 Bft) 95,74 %
09.11.2020 05:16 11,0 C 10,0 C 9,5 C 96 % 1022,6 hPa 0,0 l/m 0 min 2 min 0 W/m 0,0 km/h (0 Bft) 97,87 %
09.11.2020 05:18 11,0 C 10,0 C 9,5 C 96 % 1022,6 hPa 0,0 l/m 0 min 2 min 0 W/m 0,0 km/h (0 Bft) 97,87 %
09.11.2020 05:20 11,0 C 10,0 C 9,5 C 96 % 1022,6 hPa 0,0 l/m 0 min 2 min 0 W/m 0,0 km/h (0 Bft) 98,00 %
09.11.2020 05:22 11,0 C 10,0 C 9,5 C 96 % 1022,4 hPa 0,0 l/m 0 min 0 min 0 W/m 0,0 km/h (0 Bft) 97,87 %
09.11.2020 05:24 11,0 C 10,0 C 9,5 C 96 % 1022,3 hPa 0,0 l/m 0 min 2 min 0 W/m 0,0 km/h (0 Bft) 97,83 %
09.11.2020 05:26 11,0 C 10,0 C 9,5 C 96 % 1022,2 hPa 0,0 l/m 0 min 2 min 0 W/m 0,0 km/h (0 Bft) 98,00 %
09.11.2020 05:28 11,0 C 10,0 C 9,5 C 96 % 1022,5 hPa 0,0 l/m 0 min 0 min 0 W/m 0,0 km/h (0 Bft) 97,22 %
09.11.2020 05:30 11,0 C 10,0 C 9,5 C 96 % 1022,8 hPa 0,0 l/m 0 min 0 min 0 W/m 16,1 km/h (3 Bft) 97,87 %
09.11.2020 05:32 11,0 C 10,0 C 9,5 C 96 % 1022,8 hPa 0,0 l/m 0 min 0 min 0 W/m 12,9 km/h (3 Bft) 96,36 %
09.11.2020 05:34 11,0 C 10,0 C 9,5 C 96 % 1022,7 hPa 0,0 l/m 0 min 0 min 0 W/m 0,0 km/h (0 Bft) 97,83 %
09.11.2020 05:36 11,0 C 10,0 C 9,5 C 96 % 1022,7 hPa 0,0 l/m 0 min 2 min 0 W/m 3,2 km/h (1 Bft) 100,00 %
09.11.2020 05:38 11,0 C 10,0 C 9,5 C 96 % 1022,7 hPa 0,0 l/m 0 min 2 min 0 W/m 3,2 km/h (1 Bft) 97,87 %
09.11.2020 05:40 11,0 C 10,0 C 9,5 C 96 % 1022,8 hPa 0,0 l/m 0 min 0 min 0 W/m 3,2 km/h (1 Bft) 100,00 %
09.11.2020 05:42 11,0 C 10,0 C 9,5 C 97 % 1022,9 hPa 0,0 l/m 0 min 0 min 0 W/m 6,4 km/h (2 Bft) 100,00 %
09.11.2020 05:44 11,0 C 10,0 C 9,5 C 97 % 1022,7 hPa 0,0 l/m 0 min 0 min 0 W/m 0,0 km/h (0 Bft) 100,00 %
09.11.2020 05:46 11,0 C 10,0 C 9,5 C 97 % 1022,9 hPa 0,0 l/m 0 min 0 min 0 W/m 3,2 km/h (1 Bft) 100,00 %
09.11.2020 05:48 11,0 C 10,0 C 9,5 C 97 % 1022,8 hPa 0,0 l/m 0 min 0 min 0 W/m 12,9 km/h (3 Bft) 97,83 %
09.11.2020 05:50 11,0 C 10,0 C 9,5 C 97 % 1022,9 hPa 0,0 l/m 0 min 0 min 0 W/m 12,9 km/h (3 Bft) 100,00 %
09.11.2020 05:52 11,0 C 10,0 C 9,5 C 97 % 1022,8 hPa 0,0 l/m 0 min 2 min 0 W/m 12,9 km/h (3 Bft) 97,96 %
09.11.2020 05:54 11,0 C 10,0 C 9,5 C 97 % 1022,8 hPa 0,0 l/m 0 min 2 min 0 W/m 19,3 km/h (3 Bft) 100,00 %
09.11.2020 05:56 11,1 C 10,0 C 9,5 C 97 % 1022,8 hPa 0,0 l/m 0 min 2 min 0 W/m 12,9 km/h (3 Bft) 100,00 %
09.11.2020 05:58 11,1 C 10,0 C 9,5 C 97 % 1022,8 hPa 0,0 l/m 0 min 2 min 0 W/m 3,2 km/h (1 Bft) 98,04 %
09.11.2020 06:00 11,1 C 10,0 C 9,5 C 97 % 1022,8 hPa 0,0 l/m 0 min 0 min 0 W/m 16,1 km/h (3 Bft) 100,00 %
09.11.2020 06:02 11,1 C 10,0 C 9,5 C 97 % 1022,7 hPa 0,0 l/m 0 min 0 min 0 W/m 0,0 km/h (0 Bft) 100,00 %
09.11.2020 06:04 11,1 C 10,0 C 9,5 C 97 % 1022,8 hPa 0,0 l/m 0 min 2 min 0 W/m 3,2 km/h (1 Bft) 100,00 %
09.11.2020 06:08 11,1 C 10,0 C 9,5 C 97 % 1022,7 hPa 0,0 l/m 0 min 0 min 0 W/m 3,2 km/h (1 Bft) 100,00 %
09.11.2020 06:10 11,1 C 10,0 C 9,5 C 97 % 1022,8 hPa 0,0 l/m 0 min 0 min 0 W/m 0,0 km/h (0 Bft) 100,00 %
09.11.2020 06:12 11,1 C 10,0 C 9,5 C 97 % 1022,7 hPa 0,0 l/m 0 min 0 min 0 W/m 12,9 km/h (3 Bft) 100,00 %
09.11.2020 06:14 11,1 C 10,6 C 9,5 C 97 % 1022,7 hPa 0,0 l/m 0 min 0 min 0 W/m 12,9 km/h (3 Bft) 100,00 %
09.11.2020 06:16 11,1 C 10,6 C 9,5 C 97 % 1022,7 hPa 0,0 l/m 0 min 0 min 0 W/m 6,4 km/h (2 Bft) 100,00 %
09.11.2020 06:18 11,1 C 10,6 C 9,5 C 97 % 1022,7 hPa 0,0 l/m 0 min 0 min 0 W/m 6,4 km/h (2 Bft) 100,00 %
09.11.2020 06:20 11,1 C 10,0 C 9,5 C 97 % 1022,7 hPa 0,0 l/m 0 min 0 min 0 W/m 3,2 km/h (1 Bft) 100,00 %
09.11.2020 06:22 11,1 C 10,0 C 9,5 C 97 % 1022,6 hPa 0,0 l/m 0 min 2 min 0 W/m 3,2 km/h (1 Bft) 100,00 %
09.11.2020 06:24 11,1 C 10,6 C 9,5 C 97 % 1022,6 hPa 0,0 l/m 0 min 2 min 0 W/m 6,4 km/h (2 Bft) 100,00 %
09.11.2020 06:26 11,1 C 10,6 C 9,5 C 97 % 1022,7 hPa 0,0 l/m 0 min 0 min 0 W/m 6,4 km/h (2 Bft) 100,00 %
09.11.2020 06:28 11,1 C 10,6 C 10,0 C 97 % 1022,6 hPa 0,0 l/m 0 min 0 min 0 W/m 0,0 km/h (0 Bft) 100,00 %
09.11.2020 06:30 11,2 C 10,6 C 10,0 C 97 % 1022,6 hPa 0,0 l/m 0 min 0 min 0 W/m 12,9 km/h (3 Bft) 100,00 %
09.11.2020 06:32 11,1 C 10,6 C 9,5 C 97 % 1022,6 hPa 0,0 l/m 0 min 2 min 0 W/m 3,2 km/h (1 Bft) 100,00 %
09.11.2020 06:34 11,1 C 10,0 C 9,5 C 97 % 1022,6 hPa 0,0 l/m 0 min 2 min 0 W/m 6,4 km/h (2 Bft) 97,44 %
09.11.2020 06:36 11,1 C 10,0 C 9,5 C 97 % 1022,6 hPa 0,0 l/m 0 min 0 min 0 W/m 3,2 km/h (1 Bft) 95,92 %
09.11.2020 06:38 11,1 C 10,0 C 9,5 C 97 % 1022,6 hPa 0,0 l/m 0 min 0 min 0 W/m 0,0 km/h (0 Bft) 100,00 %
09.11.2020 06:40 11,1 C 10,0 C 9,5 C 97 % 1022,7 hPa 0,0 l/m 0 min 0 min 0 W/m 0,0 km/h (0 Bft) 100,00 %
09.11.2020 06:42 11,1 C 10,0 C 9,5 C 97 % 1022,7 hPa 0,0 l/m 0 min 0 min 0 W/m 0,0 km/h (0 Bft) 97,87 %
09.11.2020 06:44 11,1 C 10,0 C 9,5 C 97 % 1022,7 hPa 0,0 l/m 0 min 0 min 0 W/m 3,2 km/h (1 Bft) 97,87 %
09.11.2020 06:46 11,1 C 10,0 C 9,5 C 97 % 1022,8 hPa 0,2 l/m 0 min 0 min 0 W/m 0,0 km/h (0 Bft) 100,00 %
09.11.2020 06:48 11,2 C 10,0 C 9,5 C 97 % 1022,9 hPa 0,0 l/m 0 min 0 min 0 W/m 3,2 km/h (1 Bft) 100,00 %
09.11.2020 06:50 11,1 C 10,0 C 9,5 C 97 % 1022,9 hPa 0,0 l/m 0 min 0 min 0 W/m 0,0 km/h (0 Bft) 97,67 %
09.11.2020 06:52 11,2 C 10,0 C 9,5 C 97 % 1022,9 hPa 0,0 l/m 0 min 0 min 0 W/m 3,2 km/h (1 Bft) 98,00 %
09.11.2020 06:54 11,1 C 10,0 C 9,5 C 97 % 1022,9 hPa 0,0 l/m 0 min 0 min 0 W/m 12,9 km/h (3 Bft) 97,87 %
09.11.2020 06:56 11,1 C 10,0 C 9,5 C 97 % 1022,8 hPa 0,0 l/m 0 min 0 min 0 W/m 12,9 km/h (3 Bft) 97,87 %
09.11.2020 06:58 11,1 C 10,0 C 9,5 C 97 % 1022,9 hPa 0,0 l/m 0 min 0 min 0 W/m 3,2 km/h (1 Bft) 97,87 %
09.11.2020 07:00 11,1 C 10,0 C 9,5 C 97 % 1022,9 hPa 0,0 l/m 0 min 0 min 0 W/m 6,4 km/h (2 Bft) 95,74 %
09.11.2020 07:02 11,1 C 10,0 C 9,5 C 97 % 1022,9 hPa 0,0 l/m 0 min 0 min 0 W/m 6,4 km/h (2 Bft) 97,67 %
09.11.2020 07:04 11,1 C 10,0 C 9,5 C 97 % 1022,9 hPa 0,0 l/m 0 min 0 min 0 W/m 6,4 km/h (2 Bft) 98,00 %
09.11.2020 07:06 11,1 C 10,0 C 9,5 C 97 % 1022,9 hPa 0,0 l/m 0 min 0 min 0 W/m 3,2 km/h (1 Bft) 100,00 %
09.11.2020 07:08 11,1 C 10,0 C 9,5 C 97 % 1022,9 hPa 0,0 l/m 0 min 0 min 0 W/m 12,9 km/h (3 Bft) 97,87 %
09.11.2020 07:10 11,1 C 10,0 C 9,5 C 97 % 1023,0 hPa 0,0 l/m 0 min 0 min 0 W/m 6,4 km/h (2 Bft) 97,92 %
09.11.2020 07:12 11,1 C 10,0 C 9,5 C 97 % 1022,9 hPa 0,0 l/m 0 min 0 min 0 W/m 6,4 km/h (2 Bft) 95,83 %
09.11.2020 07:14 11,1 C 10,0 C 9,5 C 97 % 1023,0 hPa 0,0 l/m 0 min 0 min 0 W/m 3,2 km/h (1 Bft) 97,56 %
09.11.2020 07:16 11,1 C 10,0 C 9,5 C 97 % 1023,0 hPa 0,0 l/m 0 min 0 min 0 W/m 0,0 km/h (0 Bft) 92,00 %
09.11.2020 07:18 11,1 C 10,0 C 9,5 C 97 % 1023,0 hPa 0,0 l/m 0 min 0 min 0 W/m 12,9 km/h (3 Bft) 100,00 %
09.11.2020 07:20 11,1 C 10,0 C 9,5 C 97 % 1023,0 hPa 0,0 l/m 0 min 0 min 0 W/m 3,2 km/h (1 Bft) 97,87 %
09.11.2020 07:22 11,1 C 10,0 C 9,5 C 97 % 1023,0 hPa 0,0 l/m 0 min 0 min 0 W/m 12,9 km/h (3 Bft) 95,83 %
09.11.2020 07:24 11,1 C 10,0 C 9,5 C 97 % 1023,0 hPa 0,0 l/m 0 min 0 min 0 W/m 6,4 km/h (2 Bft) 97,83 %
09.11.2020 07:26 11,1 C 10,0 C 9,5 C 97 % 1023,1 hPa 0,0 l/m 0 min 0 min 0 W/m 0,0 km/h (0 Bft) 97,22 %
09.11.2020 07:28 11,1 C 10,0 C 9,5 C 97 % 1023,0 hPa 0,0 l/m 0 min 0 min 0 W/m 3,2 km/h (1 Bft) 96,30 %
09.11.2020 07:30 11,1 C 10,0 C 9,5 C 97 % 1023,0 hPa 0,0 l/m 0 min 0 min 0 W/m 3,2 km/h (1 Bft) 97,96 %
09.11.2020 07:32 11,1 C 10,0 C 9,5 C 97 % 1023,1 hPa 0,0 l/m 0 min 0 min 0 W/m 0,0 km/h (0 Bft) 95,74 %
09.11.2020 07:34 11,1 C 10,0 C 9,5 C 97 % 1023,2 hPa 0,0 l/m 0 min 0 min 0 W/m 0,0 km/h (0 Bft) 96,00 %
09.11.2020 07:36 11,0 C 10,0 C 9,5 C 97 % 1023,2 hPa 0,0 l/m 0 min 0 min 0 W/m 0,0 km/h (0 Bft) 97,30 %
09.11.2020 07:38 11,0 C 10,0 C 9,5 C 97 % 1023,2 hPa 0,0 l/m 0 min 0 min 0 W/m 3,2 km/h (1 Bft) 93,62 %
09.11.2020 07:40 11,0 C 10,0 C 9,5 C 97 % 1023,3 hPa 0,0 l/m 0 min 0 min 0 W/m 3,2 km/h (1 Bft) 91,30 %
09.11.2020 07:42 11,0 C 10,0 C 9,5 C 97 % 1023,3 hPa 0,0 l/m 0 min 0 min 0 W/m 3,2 km/h (1 Bft) 95,74 %
09.11.2020 07:44 11,0 C 10,0 C 9,5 C 97 % 1023,4 hPa 0,0 l/m 0 min 0 min 0 W/m 3,2 km/h (1 Bft) 95,74 %
09.11.2020 07:46 11,0 C 10,0 C 9,5 C 97 % 1023,4 hPa 0,0 l/m 0 min 0 min 0 W/m 3,2 km/h (1 Bft) 94,44 %
09.11.2020 07:48 11,0 C 10,0 C 9,5 C 97 % 1023,4 hPa 0,0 l/m 0 min 0 min 0 W/m 3,2 km/h (1 Bft) 94,00 %
09.11.2020 07:50 11,0 C 10,0 C 9,5 C 97 % 1023,4 hPa 0,0 l/m 0 min 0 min 0 W/m 3,2 km/h (1 Bft) 97,30 %
09.11.2020 07:52 11,0 C 10,0 C 9,5 C 97 % 1023,4 hPa 0,0 l/m 0 min 0 min 0 W/m 0,0 km/h (0 Bft) 93,62 %
09.11.2020 07:54 11,0 C 10,0 C 9,5 C 97 % 1023,4 hPa 0,0 l/m 0 min 0 min 0 W/m 0,0 km/h (0 Bft) 96,23 %
09.11.2020 07:56 10,9 C 10,0 C 9,5 C 97 % 1023,5 hPa 0,0 l/m 0 min 0 min 0 W/m 3,2 km/h (1 Bft) 95,74 %
09.11.2020 07:58 10,9 C 10,0 C 9,5 C 97 % 1023,4 hPa 0,0 l/m 0 min 0 min 0 W/m 0,0 km/h (0 Bft) 98,00 %
09.11.2020 08:00 10,9 C 10,0 C 9,5 C 97 % 1023,4 hPa 0,0 l/m 0 min 0 min 1 W/m 6,4 km/h (2 Bft) 94,74 %
09.11.2020 08:02 10,9 C 10,0 C 9,5 C 97 % 1023,4 hPa 0,0 l/m 0 min 0 min 5 W/m 0,0 km/h (0 Bft) 95,92 %
09.11.2020 08:04 10,9 C 10,0 C 9,5 C 97 % 1023,5 hPa 0,0 l/m 0 min 0 min 6 W/m 3,2 km/h (1 Bft) 93,62 %
09.11.2020 08:06 10,9 C 10,0 C 9,5 C 97 % 1023,5 hPa 0,0 l/m 0 min 0 min 7 W/m 0,0 km/h (0 Bft) 92,45 %
09.11.2020 08:08 10,9 C 10,0 C 9,5 C 97 % 1023,5 hPa 0,0 l/m 0 min 0 min 8 W/m 3,2 km/h (1 Bft) 97,37 %
09.11.2020 08:10 10,9 C 10,0 C 9,5 C 97 % 1023,5 hPa 0,0 l/m 0 min 0 min 9 W/m 0,0 km/h (0 Bft) 93,62 %
09.11.2020 08:12 10,9 C 10,0 C 9,5 C 97 % 1023,5 hPa 0,0 l/m 0 min 0 min 11 W/m 0,0 km/h (0 Bft) 96,00 %
09.11.2020 08:14 10,9 C 10,0 C 9,5 C 97 % 1023,5 hPa 0,0 l/m 0 min 0 min 11 W/m 0,0 km/h (0 Bft) 95,74 %
09.11.2020 08:16 10,9 C 10,0 C 9,5 C 97 % 1023,5 hPa 0,0 l/m 0 min 0 min 12 W/m 0,0 km/h (0 Bft) 93,62 %
09.11.2020 08:18 10,9 C 10,0 C 9,5 C 97 % 1023,6 hPa 0,0 l/m 0 min 0 min 12 W/m 0,0 km/h (0 Bft) 95,83 %
09.11.2020 08:20 10,9 C 10,0 C 9,5 C 97 % 1023,6 hPa 0,0 l/m 0 min 0 min 12 W/m 0,0 km/h (0 Bft) 95,83 %
09.11.2020 08:22 10,8 C 10,0 C 9,5 C 97 % 1023,7 hPa 0,0 l/m 0 min 0 min 14 W/m 0,0 km/h (0 Bft) 93,75 %
09.11.2020 08:24 10,8 C 10,0 C 9,5 C 97 % 1023,6 hPa 0,0 l/m 0 min 0 min 16 W/m 0,0 km/h (0 Bft) 94,29 %
09.11.2020 08:26 10,8 C 10,0 C 9,5 C 97 % 1023,6 hPa 0,0 l/m 0 min 0 min 18 W/m 0,0 km/h (0 Bft) 98,21 %
09.11.2020 08:28 10,8 C 10,0 C 9,5 C 97 % 1023,6 hPa 0,0 l/m 0 min 0 min 19 W/m 0,0 km/h (0 Bft) 96,00 %
09.11.2020 08:30 10,8 C 10,0 C 9,5 C 97 % 1023,6 hPa 0,0 l/m 0 min 0 min 22 W/m 0,0 km/h (0 Bft) 97,92 %
09.11.2020 08:32 10,8 C 10,0 C 9,5 C 97 % 1023,6 hPa 0,0 l/m 0 min 0 min 25 W/m 0,0 km/h (0 Bft) 94,29 %
09.11.2020 08:34 10,8 C 10,6 C 9,5 C 97 % 1023,7 hPa 0,0 l/m 0 min 0 min 26 W/m 3,2 km/h (1 Bft) 96,36 %
09.11.2020 08:36 10,8 C 10,6 C 9,5 C 97 % 1023,7 hPa 0,0 l/m 0 min 0 min 29 W/m 0,0 km/h (0 Bft) 95,83 %
09.11.2020 08:38 10,8 C 10,6 C 9,5 C 97 % 1023,7 hPa 0,0 l/m 0 min 0 min 32 W/m 6,4 km/h (2 Bft) 95,56 %
09.11.2020 08:40 10,8 C 10,6 C 10,0 C 97 % 1023,7 hPa 0,0 l/m 0 min 0 min 35 W/m 3,2 km/h (1 Bft) 95,74 %
09.11.2020 08:42 10,8 C 10,6 C 10,0 C 97 % 1023,7 hPa 0,0 l/m 0 min 0 min 39 W/m 0,0 km/h (0 Bft) 100,00 %
09.11.2020 08:44 10,8 C 10,6 C 10,0 C 97 % 1023,7 hPa 0,0 l/m 0 min 0 min 43 W/m 12,9 km/h (3 Bft) 100,00 %
09.11.2020 08:46 10,8 C 10,6 C 10,0 C 97 % 1023,7 hPa 0,0 l/m 0 min 0 min 47 W/m 6,4 km/h (2 Bft) 100,00 %
09.11.2020 08:48 10,8 C 11,1 C 10,0 C 97 % 1023,7 hPa 0,0 l/m 0 min 0 min 52 W/m 3,2 km/h (1 Bft) 100,00 %
09.11.2020 08:50 10,8 C 11,1 C 10,0 C 97 % 1023,8 hPa 0,0 l/m 0 min 0 min 59 W/m 6,4 km/h (2 Bft) 95,65 %
09.11.2020 08:52 10,8 C 11,1 C 10,0 C 97 % 1023,7 hPa 0,0 l/m 0 min 0 min 65 W/m 12,9 km/h (3 Bft) 100,00 %
09.11.2020 08:54 10,9 C 11,1 C 10,0 C 97 % 1023,7 hPa 0,0 l/m 0 min 0 min 69 W/m 3,2 km/h (1 Bft) 100,00 %
09.11.2020 08:56 10,9 C 11,1 C 10,6 C 97 % 1023,7 hPa 0,0 l/m 0 min 0 min 68 W/m 3,2 km/h (1 Bft) 100,00 %
09.11.2020 08:58 10,9 C 11,1 C 10,6 C 97 % 1023,6 hPa 0,0 l/m 0 min 0 min 67 W/m 3,2 km/h (1 Bft) 97,92 %
09.11.2020 09:00 10,9 C 11,1 C 10,6 C 97 % 1023,6 hPa 0,0 l/m 0 min 0 min 66 W/m 6,4 km/h (2 Bft) 100,00 %
09.11.2020 09:02 11,0 C 11,1 C 10,6 C 97 % 1023,7 hPa 0,0 l/m 0 min 0 min 62 W/m 6,4 km/h (2 Bft) 98,15 %
09.11.2020 09:04 11,0 C 11,1 C 10,6 C 97 % 1023,8 hPa 0,0 l/m 0 min 0 min 58 W/m 6,4 km/h (2 Bft) 100,00 %
09.11.2020 09:06 11,0 C 11,1 C 10,6 C 97 % 1023,7 hPa 0,0 l/m 0 min 0 min 52 W/m 16,1 km/h (3 Bft) 100,00 %
09.11.2020 09:08 11,1 C 11,1 C 10,6 C 98 % 1023,7 hPa 0,0 l/m 0 min 0 min 50 W/m 6,4 km/h (2 Bft) 97,92 %
09.11.2020 09:10 11,1 C 11,1 C 10,6 C 98 % 1023,7 hPa 0,0 l/m 0 min 0 min 50 W/m 0,0 km/h (0 Bft) 100,00 %
09.11.2020 09:12 11,1 C 11,1 C 10,6 C 98 % 1023,7 hPa 0,0 l/m 0 min 0 min 52 W/m 0,0 km/h (0 Bft) 100,00 %
09.11.2020 09:14 11,1 C 11,1 C 10,6 C 98 % 1023,7 hPa 0,0 l/m 0 min 0 min 53 W/m 0,0 km/h (0 Bft) 100,00 %
09.11.2020 09:16 11,2 C 11,1 C 10,6 C 98 % 1023,7 hPa 0,0 l/m 0 min 0 min 53 W/m 3,2 km/h (1 Bft) 100,00 %
09.11.2020 09:18 11,2 C 11,1 C 10,6 C 98 % 1023,7 hPa 0,0 l/m 0 min 0 min 54 W/m 6,4 km/h (2 Bft) 100,00 %
09.11.2020 09:20 11,3 C 11,7 C 10,6 C 98 % 1023,7 hPa 0,0 l/m 0 min 0 min 54 W/m 3,2 km/h (1 Bft) 100,00 %
09.11.2020 09:22 11,3 C 11,7 C 10,6 C 98 % 1023,7 hPa 0,0 l/m 0 min 0 min 53 W/m 3,2 km/h (1 Bft) 97,96 %
09.11.2020 09:24 11,3 C 11,7 C 10,6 C 97 % 1023,8 hPa 0,0 l/m 0 min 0 min 51 W/m 3,2 km/h (1 Bft) 100,00 %
09.11.2020 09:26 11,3 C 11,7 C 10,6 C 97 % 1023,7 hPa 0,0 l/m 0 min 0 min 46 W/m 3,2 km/h (1 Bft) 97,92 %
09.11.2020 09:28 11,3 C 11,1 C 10,6 C 97 % 1023,7 hPa 0,0 l/m 0 min 0 min 43 W/m 0,0 km/h (0 Bft) 100,00 %
09.11.2020 09:30 11,4 C 11,1 C 10,6 C 97 % 1023,6 hPa 0,0 l/m 0 min 0 min 40 W/m 6,4 km/h (2 Bft) 97,92 %
09.11.2020 09:32 11,4 C 11,1 C 10,6 C 97 % 1023,7 hPa 0,0 l/m 0 min 0 min 39 W/m 6,4 km/h (2 Bft) 100,00 %
09.11.2020 09:34 11,4 C 11,1 C 10,6 C 97 % 1023,7 hPa 0,0 l/m 0 min 0 min 39 W/m 12,9 km/h (3 Bft) 100,00 %
09.11.2020 09:36 11,4 C 11,7 C 10,6 C 98 % 1023,6 hPa 0,0 l/m 0 min 0 min 39 W/m 0,0 km/h (0 Bft) 100,00 %
09.11.2020 09:38 11,4 C 11,7 C 10,6 C 98 % 1023,6 hPa 0,0 l/m 0 min 0 min 40 W/m 3,2 km/h (1 Bft) 96,00 %
09.11.2020 09:40 11,4 C 11,7 C 10,6 C 98 % 1023,6 hPa 0,0 l/m 0 min 0 min 44 W/m 0,0 km/h (0 Bft) 97,83 %
09.11.2020 09:42 11,4 C 11,7 C 10,6 C 98 % 1023,6 hPa 0,0 l/m 0 min 0 min 50 W/m 0,0 km/h (0 Bft) 97,87 %
09.11.2020 09:44 11,4 C 11,7 C 10,6 C 98 % 1023,6 hPa 0,0 l/m 0 min 0 min 60 W/m 3,2 km/h (1 Bft) 95,74 %
09.11.2020 09:46 11,5 C 11,7 C 10,6 C 97 % 1023,6 hPa 0,0 l/m 0 min 0 min 73 W/m 0,0 km/h (0 Bft) 98,00 %
09.11.2020 09:48 11,5 C 11,7 C 10,6 C 97 % 1023,6 hPa 0,0 l/m 0 min 0 min 88 W/m 3,2 km/h (1 Bft) 97,87 %
09.11.2020 09:50 11,5 C 12,2 C 11,1 C 97 % 1023,6 hPa 0,0 l/m 0 min 0 min 101 W/m 0,0 km/h (0 Bft) 97,22 %
09.11.2020 09:52 11,5 C 12,2 C 11,1 C 97 % 1023,6 hPa 0,0 l/m 0 min 0 min 112 W/m 0,0 km/h (0 Bft) 95,74 %
09.11.2020 09:54 11,6 C 12,2 C 11,1 C 97 % 1023,6 hPa 0,0 l/m 0 min 0 min 116 W/m 0,0 km/h (0 Bft) 98,15 %
09.11.2020 09:57 11,6 C 12,2 C 11,1 C 97 % 1023,6 hPa 0,0 l/m 0 min 0 min 115 W/m 0,0 km/h (0 Bft) 94,03 %
09.11.2020 09:58 11,6 C 12,2 C 11,1 C 97 % 1023,6 hPa 0,0 l/m 0 min 0 min 110 W/m 0,0 km/h (0 Bft) 100,00 %
09.11.2020 10:00 11,7 C 12,2 C 11,1 C 97 % 1023,5 hPa 0,0 l/m 0 min 0 min 106 W/m 0,0 km/h (0 Bft) 97,83 %
09.11.2020 10:02 11,8 C 12,2 C 11,1 C 97 % 1023,6 hPa 0,0 l/m 0 min 0 min 109 W/m 0,0 km/h (0 Bft) 94,00 %
09.11.2020 10:04 11,8 C 12,2 C 11,1 C 98 % 1023,5 hPa 0,0 l/m 0 min 0 min 116 W/m 3,2 km/h (1 Bft) 97,87 %
09.11.2020 10:06 11,8 C 12,2 C 11,1 C 98 % 1023,6 hPa 0,0 l/m 0 min 0 min 99 W/m 6,4 km/h (2 Bft) 97,87 %
09.11.2020 10:08 11,8 C 12,2 C 11,1 C 98 % 1023,5 hPa 0,0 l/m 0 min 0 min 93 W/m 6,4 km/h (2 Bft) 97,87 %
09.11.2020 10:10 11,9 C 12,2 C 11,1 C 97 % 1023,5 hPa 0,0 l/m 0 min 0 min 90 W/m 3,2 km/h (1 Bft) 97,87 %
09.11.2020 10:12 11,9 C 12,2 C 11,1 C 97 % 1023,5 hPa 0,0 l/m 0 min 0 min 90 W/m 3,2 km/h (1 Bft) 97,87 %
09.11.2020 10:14 11,9 C 12,2 C 11,1 C 97 % 1023,4 hPa 0,0 l/m 0 min 0 min 87 W/m 3,2 km/h (1 Bft) 97,87 %
09.11.2020 10:16 11,9 C 12,2 C 11,1 C 97 % 1023,5 hPa 0,0 l/m 0 min 0 min 80 W/m 3,2 km/h (1 Bft) 97,83 %
09.11.2020 10:18 12,0 C 12,2 C 11,1 C 97 % 1023,4 hPa 0,0 l/m 0 min 0 min 73 W/m 3,2 km/h (1 Bft) 97,87 %
09.11.2020 10:20 12,0 C 12,2 C 11,1 C 97 % 1023,5 hPa 0,0 l/m 0 min 0 min 69 W/m 12,9 km/h (3 Bft) 95,74 %
09.11.2020 10:22 12,0 C 12,2 C 11,1 C 97 % 1023,5 hPa 0,0 l/m 0 min 0 min 69 W/m 3,2 km/h (1 Bft) 93,62 %
09.11.2020 10:24 12,0 C 12,2 C 11,1 C 97 % 1023,4 hPa 0,0 l/m 0 min 0 min 66 W/m 3,2 km/h (1 Bft) 95,74 %
09.11.2020 10:26 12,0 C 12,2 C 11,1 C 97 % 1023,4 hPa 0,0 l/m 0 min 0 min 62 W/m 0,0 km/h (0 Bft) 95,12 %
09.11.2020 10:28 12,0 C 12,2 C 11,1 C 97 % 1023,5 hPa 0,0 l/m 0 min 0 min 61 W/m 0,0 km/h (0 Bft) 93,75 %
09.11.2020 10:30 12,0 C 12,2 C 11,1 C 97 % 1023,4 hPa 0,0 l/m 0 min 0 min 65 W/m 3,2 km/h (1 Bft) 95,74 %
09.11.2020 10:32 12,0 C 12,2 C 11,1 C 97 % 1023,5 hPa 0,0 l/m 0 min 0 min 73 W/m 3,2 km/h (1 Bft) 95,74 %
09.11.2020 10:34 12,1 C 12,2 C 11,1 C 97 % 1023,5 hPa 0,0 l/m 0 min 0 min 79 W/m 0,0 km/h (0 Bft) 97,83 %
09.11.2020 10:36 12,1 C 12,2 C 11,7 C 97 % 1023,6 hPa 0,0 l/m 0 min 0 min 83 W/m 3,2 km/h (1 Bft) 95,83 %
09.11.2020 10:38 12,1 C 12,8 C 11,7 C 97 % 1023,5 hPa 0,0 l/m 0 min 0 min 86 W/m 0,0 km/h (0 Bft) 95,74 %
09.11.2020 10:40 12,1 C 12,8 C 11,7 C 97 % 1023,4 hPa 0,0 l/m 0 min 0 min 90 W/m 0,0 km/h (0 Bft) 58,82 %
09.11.2020 10:42 12,1 C 12,8 C 11,7 C 97 % 1023,4 hPa 0,0 l/m 0 min 0 min 99 W/m 0,0 km/h (0 Bft) 95,74 %
09.11.2020 10:44 12,1 C 12,8 C 11,7 C 97 % 1023,4 hPa 0,0 l/m 0 min 0 min 119 W/m 0,0 km/h (0 Bft) 95,74 %
09.11.2020 10:46 12,2 C 12,8 C 11,7 C 97 % 1023,3 hPa 0,0 l/m 0 min 0 min 125 W/m 0,0 km/h (0 Bft) 97,87 %
09.11.2020 10:48 12,3 C 13,3 C 11,7 C 97 % 1023,4 hPa 0,0 l/m 0 min 0 min 132 W/m 3,2 km/h (1 Bft) 97,96 %
09.11.2020 10:50 12,3 C 13,3 C 11,7 C 97 % 1023,4 hPa 0,0 l/m 0 min 0 min 144 W/m 0,0 km/h (0 Bft) 97,87 %
09.11.2020 10:52 12,3 C 13,3 C 11,7 C 97 % 1023,4 hPa 0,0 l/m 0 min 0 min 144 W/m 0,0 km/h (0 Bft) 95,74 %
09.11.2020 10:56 12,4 C 13,9 C 12,2 C 97 % 1023,4 hPa 0,0 l/m 4 min 0 min 228 W/m 0,0 km/h (0 Bft) 96,00 %
09.11.2020 10:58 12,4 C 14,4 C 12,2 C 97 % 1023,5 hPa 0,0 l/m 2 min 0 min 280 W/m 0,0 km/h (0 Bft) 97,96 %
09.11.2020 11:00 12,5 C 15,0 C 12,2 C 97 % 1023,5 hPa 0,0 l/m 2 min 0 min 221 W/m 0,0 km/h (0 Bft) 97,87 %
09.11.2020 11:02 12,5 C 14,4 C 12,2 C 97 % 1023,5 hPa 0,0 l/m 2 min 0 min 190 W/m 0,0 km/h (0 Bft) 97,87 %
09.11.2020 11:04 12,5 C 14,4 C 12,2 C 97 % 1023,4 hPa 0,0 l/m 2 min 0 min 185 W/m 0,0 km/h (0 Bft) 100,00 %
09.11.2020 11:06 12,6 C 14,4 C 12,2 C 97 % 1023,5 hPa 0,0 l/m 2 min 0 min 177 W/m 0,0 km/h (0 Bft) 100,00 %
09.11.2020 11:08 12,7 C 14,4 C 12,2 C 97 % 1023,5 hPa 0,0 l/m 0 min 0 min 170 W/m 0,0 km/h (0 Bft) 100,00 %
09.11.2020 11:10 12,7 C 14,4 C 12,8 C 97 % 1023,5 hPa 0,0 l/m 0 min 0 min 167 W/m 0,0 km/h (0 Bft) 94,29 %
09.11.2020 11:12 12,8 C 14,4 C 12,8 C 97 % 1023,6 hPa 0,0 l/m 0 min 0 min 171 W/m 6,4 km/h (2 Bft) 98,00 %
09.11.2020 11:14 12,8 C 15,0 C 12,8 C 97 % 1023,6 hPa 0,0 l/m 2 min 0 min 175 W/m 0,0 km/h (0 Bft) 97,83 %
09.11.2020 11:16 12,9 C 15,0 C 12,8 C 97 % 1023,5 hPa 0,0 l/m 0 min 0 min 167 W/m 3,2 km/h (1 Bft) 98,00 %
09.11.2020 11:18 12,9 C 15,0 C 12,8 C 97 % 1023,6 hPa 0,0 l/m 0 min 0 min 168 W/m 0,0 km/h (0 Bft) 95,65 %
09.11.2020 11:20 13,0 C 15,0 C 12,8 C 97 % 1023,6 hPa 0,0 l/m 0 min 0 min 174 W/m 3,2 km/h (1 Bft) 96,30 %
09.11.2020 11:22 13,0 C 15,0 C 12,8 C 97 % 1023,6 hPa 0,0 l/m 0 min 0 min 171 W/m 3,2 km/h (1 Bft) 95,12 %
09.11.2020 11:24 13,0 C 15,0 C 12,8 C 97 % 1023,5 hPa 0,0 l/m 2 min 0 min 179 W/m 0,0 km/h (0 Bft) 97,14 %
09.11.2020 11:26 13,1 C 15,6 C 13,4 C 97 % 1023,6 hPa 0,0 l/m 2 min 0 min 186 W/m 3,2 km/h (1 Bft) 98,21 %
09.11.2020 11:28 13,1 C 15,6 C 13,4 C 97 % 1023,6 hPa 0,0 l/m 2 min 0 min 213 W/m 0,0 km/h (0 Bft) 97,87 %
09.11.2020 11:30 13,2 C 16,7 C 13,4 C 97 % 1023,6 hPa 0,0 l/m 2 min 0 min 249 W/m 3,2 km/h (1 Bft) 98,00 %
09.11.2020 11:32 13,3 C 18,3 C 13,4 C 97 % 1023,6 hPa 0,0 l/m 2 min 0 min 326 W/m 3,2 km/h (1 Bft) 95,74 %
09.11.2020 11:34 13,4 C 19,4 C 13,4 C 97 % 1023,6 hPa 0,0 l/m 2 min 0 min 380 W/m 6,4 km/h (2 Bft) 97,87 %
09.11.2020 11:36 13,4 C 18,9 C 13,9 C 97 % 1023,6 hPa 0,0 l/m 2 min 0 min 355 W/m 3,2 km/h (1 Bft) 97,83 %
09.11.2020 11:38 13,5 C 19,4 C 13,9 C 97 % 1023,6 hPa 0,0 l/m 2 min 0 min 348 W/m 3,2 km/h (1 Bft) 97,96 %
09.11.2020 11:40 13,6 C 20,0 C 13,9 C 97 % 1023,6 hPa 0,0 l/m 2 min 0 min 425 W/m 3,2 km/h (1 Bft) 97,87 %
09.11.2020 11:42 13,8 C 20,6 C 13,9 C 97 % 1023,6 hPa 0,0 l/m 2 min 0 min 451 W/m 12,9 km/h (3 Bft) 97,83 %
09.11.2020 11:44 13,9 C 20,0 C 13,9 C 97 % 1023,5 hPa 0,0 l/m 2 min 0 min 448 W/m 3,2 km/h (1 Bft) 97,14 %
09.11.2020 11:46 14,0 C 18,9 C 13,9 C 97 % 1023,5 hPa 0,0 l/m 2 min 0 min 345 W/m 3,2 km/h (1 Bft) 98,21 %
09.11.2020 11:48 14,0 C 18,9 C 13,9 C 97 % 1023,4 hPa 0,0 l/m 2 min 0 min 221 W/m 0,0 km/h (0 Bft) 95,92 %
09.11.2020 11:50 14,2 C 20,6 C 13,9 C 97 % 1023,5 hPa 0,0 l/m 2 min 0 min 373 W/m 0,0 km/h (0 Bft) 97,92 %
09.11.2020 11:52 14,2 C 21,1 C 13,9 C 97 % 1023,5 hPa 0,0 l/m 2 min 0 min 364 W/m 3,2 km/h (1 Bft) 97,22 %
09.11.2020 11:54 14,3 C 20,0 C 14,5 C 97 % 1023,5 hPa 0,0 l/m 2 min 0 min 344 W/m 12,9 km/h (3 Bft) 100,00 %
09.11.2020 11:56 14,4 C 18,9 C 14,5 C 97 % 1023,5 hPa 0,0 l/m 0 min 0 min 170 W/m 6,4 km/h (2 Bft) 98,15 %
09.11.2020 11:58 14,5 C 17,2 C 14,5 C 96 % 1023,5 hPa 0,0 l/m 0 min 0 min 151 W/m 3,2 km/h (1 Bft) 100,00 %
09.11.2020 12:00 14,6 C 16,7 C 14,5 C 96 % 1023,5 hPa 0,0 l/m 0 min 0 min 142 W/m 3,2 km/h (1 Bft) 100,00 %
09.11.2020 12:02 14,7 C 16,1 C 14,5 C 96 % 1023,5 hPa 0,0 l/m 0 min 0 min 134 W/m 6,4 km/h (2 Bft) 100,00 %
09.11.2020 12:04 14,8 C 16,1 C 14,5 C 96 % 1023,5 hPa 0,0 l/m 0 min 0 min 132 W/m 16,1 km/h (3 Bft) 97,14 %
09.11.2020 12:08 14,9 C 15,6 C 13,9 C 95 % 1023,5 hPa 0,0 l/m 0 min 0 min 129 W/m 16,1 km/h (3 Bft) 100,00 %
09.11.2020 12:10 14,9 C 15,6 C 13,9 C 94 % 1023,4 hPa 0,0 l/m 0 min 0 min 129 W/m 9,7 km/h (2 Bft) 100,00 %
09.11.2020 12:12 15,0 C 15,6 C 13,9 C 94 % 1023,4 hPa 0,0 l/m 0 min 0 min 127 W/m 3,2 km/h (1 Bft) 100,00 %
09.11.2020 12:14 15,0 C 15,0 C 13,9 C 93 % 1023,4 hPa 0,0 l/m 0 min 0 min 122 W/m 6,4 km/h (2 Bft) 100,00 %
09.11.2020 12:16 15,0 C 15,0 C 13,9 C 93 % 1023,4 hPa 0,0 l/m 0 min 0 min 115 W/m 12,9 km/h (3 Bft) 100,00 %
09.11.2020 12:18 15,0 C 15,0 C 13,9 C 92 % 1023,4 hPa 0,0 l/m 0 min 0 min 113 W/m 6,4 km/h (2 Bft) 97,87 %
09.11.2020 12:20 15,1 C 15,0 C 13,9 C 92 % 1023,4 hPa 0,0 l/m 0 min 0 min 113 W/m 3,2 km/h (1 Bft) 100,00 %
09.11.2020 12:22 15,1 C 15,0 C 13,9 C 92 % 1023,3 hPa 0,0 l/m 0 min 0 min 117 W/m 6,4 km/h (2 Bft) 100,00 %
09.11.2020 12:24 15,1 C 15,0 C 13,9 C 92 % 1023,3 hPa 0,0 l/m 0 min 0 min 120 W/m 12,9 km/h (3 Bft) 100,00 %
09.11.2020 12:26 15,1 C 15,0 C 13,9 C 91 % 1023,3 hPa 0,0 l/m 0 min 0 min 126 W/m 6,4 km/h (2 Bft) 100,00 %
09.11.2020 12:28 15,1 C 15,6 C 13,9 C 91 % 1023,3 hPa 0,0 l/m 0 min 0 min 134 W/m 3,2 km/h (1 Bft) 100,00 %
09.11.2020 12:30 15,1 C 15,6 C 13,9 C 91 % 1023,3 hPa 0,0 l/m 0 min 0 min 142 W/m 6,4 km/h (2 Bft) 97,83 %
09.11.2020 12:32 15,2 C 15,6 C 13,9 C 91 % 1023,3 hPa 0,0 l/m 0 min 0 min 148 W/m 6,4 km/h (2 Bft) 97,87 %
09.11.2020 12:34 15,2 C 15,6 C 13,9 C 91 % 1023,4 hPa 0,0 l/m 0 min 0 min 150 W/m 16,1 km/h (3 Bft) 97,87 %
09.11.2020 12:36 15,2 C 15,6 C 13,9 C 90 % 1023,3 hPa 0,0 l/m 0 min 0 min 152 W/m 12,9 km/h (3 Bft) 98,11 %
09.11.2020 12:38 15,2 C 15,6 C 13,9 C 90 % 1023,3 hPa 0,0 l/m 0 min 0 min 144 W/m 12,9 km/h (3 Bft) 93,62 %
09.11.2020 12:40 15,2 C 15,6 C 13,9 C 90 % 1023,3 hPa 0,0 l/m 0 min 0 min 131 W/m 6,4 km/h (2 Bft) 95,74 %
09.11.2020 12:42 15,2 C 15,6 C 13,9 C 90 % 1023,2 hPa 0,0 l/m 0 min 0 min 126 W/m 12,9 km/h (3 Bft) 97,87 %
09.11.2020 12:44 15,2 C 15,6 C 13,9 C 90 % 1023,2 hPa 0,0 l/m 0 min 0 min 139 W/m 6,4 km/h (2 Bft) 95,74 %
09.11.2020 12:46 15,2 C 15,6 C 13,9 C 90 % 1023,2 hPa 0,0 l/m 0 min 0 min 165 W/m 6,4 km/h (2 Bft) 97,96 %
09.11.2020 12:48 15,2 C 16,1 C 13,9 C 89 % 1023,2 hPa 0,0 l/m 0 min 0 min 175 W/m 6,4 km/h (2 Bft) 97,37 %
09.11.2020 12:50 15,2 C 16,1 C 13,9 C 89 % 1023,2 hPa 0,0 l/m 0 min 0 min 149 W/m 3,2 km/h (1 Bft) 97,92 %
09.11.2020 12:52 15,2 C 16,1 C 13,9 C 89 % 1023,2 hPa 0,0 l/m 0 min 0 min 139 W/m 6,4 km/h (2 Bft) 97,87 %
09.11.2020 12:54 15,3 C 16,1 C 13,9 C 90 % 1023,2 hPa 0,0 l/m 0 min 0 min 155 W/m 3,2 km/h (1 Bft) 97,87 %
09.11.2020 12:56 15,3 C 15,6 C 13,9 C 90 % 1023,2 hPa 0,0 l/m 0 min 2 min 174 W/m 3,2 km/h (1 Bft) 95,74 %
09.11.2020 12:58 15,3 C 14,4 C 13,4 C 90 % 1023,2 hPa 0,0 l/m 0 min 2 min 177 W/m 6,4 km/h (2 Bft) 97,87 %
09.11.2020 13:00 15,3 C 14,4 C 13,4 C 90 % 1023,1 hPa 0,0 l/m 0 min 2 min 156 W/m 0,0 km/h (0 Bft) 96,30 %
09.11.2020 13:02 15,3 C 13,9 C 13,4 C 90 % 1023,1 hPa 0,0 l/m 0 min 0 min 131 W/m 3,2 km/h (1 Bft) 100,00 %
09.11.2020 13:04 15,3 C 13,9 C 12,8 C 90 % 1023,1 hPa 0,0 l/m 0 min 0 min 106 W/m 6,4 km/h (2 Bft) 93,75 %
09.11.2020 13:06 15,3 C 13,9 C 12,8 C 90 % 1023,1 hPa 0,0 l/m 0 min 0 min 92 W/m 0,0 km/h (0 Bft) 95,74 %
09.11.2020 13:08 15,3 C 13,9 C 12,8 C 90 % 1023,0 hPa 0,0 l/m 0 min 0 min 90 W/m 0,0 km/h (0 Bft) 97,92 %
09.11.2020 13:10 15,3 C 13,9 C 12,8 C 90 % 1023,1 hPa 0,0 l/m 0 min 0 min 96 W/m 0,0 km/h (0 Bft) 100,00 %
09.11.2020 13:12 15,3 C 13,9 C 12,8 C 90 % 1023,1 hPa 0,0 l/m 0 min 0 min 107 W/m 0,0 km/h (0 Bft) 98,11 %
09.11.2020 13:14 15,3 C 14,4 C 13,4 C 90 % 1023,0 hPa 0,0 l/m 0 min 0 min 125 W/m 0,0 km/h (0 Bft) 100,00 %
09.11.2020 13:16 15,3 C 14,4 C 13,4 C 90 % 1023,0 hPa 0,0 l/m 0 min 0 min 144 W/m 0,0 km/h (0 Bft) 95,74 %
09.11.2020 13:18 15,3 C 14,4 C 13,4 C 90 % 1023,0 hPa 0,0 l/m 0 min 0 min 152 W/m 3,2 km/h (1 Bft) 100,00 %
09.11.2020 13:20 15,3 C 15,0 C 13,4 C 90 % 1023,0 hPa 0,0 l/m 0 min 0 min 143 W/m 0,0 km/h (0 Bft) 95,74 %
09.11.2020 13:22 15,3 C 15,0 C 13,4 C 90 % 1023,1 hPa 0,0 l/m 0 min 0 min 128 W/m 12,9 km/h (3 Bft) 97,87 %
09.11.2020 13:24 15,3 C 15,0 C 13,4 C 90 % 1023,0 hPa 0,0 l/m 0 min 0 min 123 W/m 6,4 km/h (2 Bft) 97,67 %
09.11.2020 13:26 15,3 C 15,0 C 13,4 C 90 % 1023,0 hPa 0,0 l/m 0 min 0 min 129 W/m 3,2 km/h (1 Bft) 98,00 %
09.11.2020 13:28 15,3 C 15,6 C 13,4 C 90 % 1023,0 hPa 0,0 l/m 0 min 0 min 137 W/m 0,0 km/h (0 Bft) 95,74 %
09.11.2020 13:30 15,3 C 15,6 C 13,9 C 90 % 1023,0 hPa 0,0 l/m 0 min 0 min 142 W/m 3,2 km/h (1 Bft) 97,92 %
09.11.2020 13:32 15,3 C 15,6 C 13,9 C 90 % 1023,0 hPa 0,0 l/m 0 min 0 min 146 W/m 3,2 km/h (1 Bft) 97,87 %
09.11.2020 13:34 15,2 C 15,6 C 13,9 C 90 % 1023,0 hPa 0,0 l/m 0 min 0 min 147 W/m 12,9 km/h (3 Bft) 97,62 %
09.11.2020 13:36 15,2 C 15,6 C 13,9 C 90 % 1023,0 hPa 0,0 l/m 0 min 0 min 143 W/m 3,2 km/h (1 Bft) 97,87 %
09.11.2020 13:38 15,2 C 15,6 C 13,9 C 90 % 1022,9 hPa 0,0 l/m 0 min 0 min 136 W/m 3,2 km/h (1 Bft) 98,00 %
09.11.2020 13:40 15,3 C 15,6 C 13,9 C 90 % 1022,9 hPa 0,0 l/m 0 min 0 min 132 W/m 3,2 km/h (1 Bft) 97,87 %
09.11.2020 13:42 15,3 C 15,6 C 13,9 C 90 % 1022,9 hPa 0,0 l/m 0 min 0 min 139 W/m 3,2 km/h (1 Bft) 95,56 %
09.11.2020 13:44 15,3 C 16,1 C 13,9 C 90 % 1022,9 hPa 0,0 l/m 0 min 0 min 145 W/m 3,2 km/h (1 Bft) 97,96 %
09.11.2020 13:46 15,3 C 16,1 C 13,9 C 90 % 1022,9 hPa 0,0 l/m 0 min 0 min 156 W/m 3,2 km/h (1 Bft) 95,74 %
09.11.2020 13:48 15,3 C 16,1 C 14,5 C 91 % 1023,0 hPa 0,0 l/m 2 min 0 min 163 W/m 6,4 km/h (2 Bft) 97,87 %
09.11.2020 13:50 15,4 C 16,7 C 14,5 C 91 % 1023,0 hPa 0,0 l/m 2 min 0 min 198 W/m 3,2 km/h (1 Bft) 95,74 %
09.11.2020 13:52 15,4 C 16,7 C 14,5 C 91 % 1023,0 hPa 0,0 l/m 2 min 0 min 248 W/m 6,4 km/h (2 Bft) 96,00 %
09.11.2020 13:54 15,4 C 17,8 C 14,5 C 91 % 1022,9 hPa 0,0 l/m 2 min 0 min 231 W/m 3,2 km/h (1 Bft) 95,92 %
09.11.2020 13:56 15,5 C 19,4 C 15,0 C 91 % 1022,9 hPa 0,0 l/m 2 min 0 min 341 W/m 6,4 km/h (2 Bft) 95,74 %
09.11.2020 13:58 15,6 C 20,6 C 15,0 C 91 % 1022,9 hPa 0,0 l/m 2 min 0 min 398 W/m 0,0 km/h (0 Bft) 94,29 %
09.11.2020 14:00 15,7 C 21,1 C 15,0 C 91 % 1022,9 hPa 0,0 l/m 2 min 0 min 380 W/m 0,0 km/h (0 Bft) 95,92 %
09.11.2020 14:02 15,8 C 20,6 C 15,0 C 91 % 1022,9 hPa 0,0 l/m 2 min 0 min 370 W/m 16,1 km/h (3 Bft) 95,92 %
09.11.2020 14:04 15,8 C 19,4 C 15,0 C 91 % 1022,9 hPa 0,0 l/m 2 min 0 min 260 W/m 22,5 km/h (4 Bft) 95,74 %
09.11.2020 14:06 15,9 C 18,3 C 15,0 C 90 % 1022,9 hPa 0,0 l/m 2 min 0 min 198 W/m 12,9 km/h (3 Bft) 95,45 %
09.11.2020 14:08 15,9 C 18,9 C 15,0 C 90 % 1022,9 hPa 0,0 l/m 2 min 0 min 200 W/m 6,4 km/h (2 Bft) 95,65 %
09.11.2020 14:10 16,0 C 18,3 C 15,0 C 89 % 1022,8 hPa 0,0 l/m 2 min 0 min 196 W/m 6,4 km/h (2 Bft) 95,74 %
09.11.2020 14:12 16,0 C 18,3 C 15,0 C 89 % 1022,9 hPa 0,0 l/m 2 min 0 min 174 W/m 3,2 km/h (1 Bft) 95,74 %
09.11.2020 14:14 16,1 C 19,4 C 15,0 C 89 % 1022,9 hPa 0,0 l/m 2 min 0 min 263 W/m 3,2 km/h (1 Bft) 95,74 %
09.11.2020 14:16 16,1 C 20,6 C 15,0 C 89 % 1022,9 hPa 0,0 l/m 2 min 0 min 336 W/m 6,4 km/h (2 Bft) 90,00 %
09.11.2020 14:18 16,3 C 21,1 C 15,0 C 89 % 1022,9 hPa 0,0 l/m 2 min 0 min 328 W/m 6,4 km/h (2 Bft) 97,96 %
09.11.2020 14:20 16,3 C 21,1 C 15,0 C 88 % 1022,8 hPa 0,0 l/m 2 min 0 min 325 W/m 6,4 km/h (2 Bft) 97,87 %
09.11.2020 14:22 16,4 C 20,6 C 15,0 C 88 % 1022,8 hPa 0,0 l/m 2 min 0 min 298 W/m 12,9 km/h (3 Bft) 95,74 %
09.11.2020 14:24 16,4 C 20,6 C 15,0 C 88 % 1022,9 hPa 0,0 l/m 2 min 0 min 293 W/m 6,4 km/h (2 Bft) 100,00 %
09.11.2020 14:26 16,5 C 20,6 C 15,0 C 87 % 1022,9 hPa 0,0 l/m 2 min 0 min 263 W/m 12,9 km/h (3 Bft) 98,00 %
09.11.2020 14:28 16,5 C 20,0 C 15,0 C 86 % 1022,9 hPa 0,0 l/m 2 min 0 min 242 W/m 19,3 km/h (3 Bft) 98,00 %
09.11.2020 14:30 16,6 C 19,4 C 15,0 C 86 % 1022,9 hPa 0,0 l/m 2 min 0 min 256 W/m 19,3 km/h (3 Bft) 97,87 %
09.11.2020 14:32 16,6 C 18,3 C 15,0 C 85 % 1022,9 hPa 0,0 l/m 2 min 0 min 163 W/m 12,9 km/h (3 Bft) 97,14 %
09.11.2020 14:34 16,6 C 18,3 C 14,5 C 85 % 1022,9 hPa 0,0 l/m 2 min 0 min 175 W/m 3,2 km/h (1 Bft) 100,00 %
09.11.2020 14:36 16,6 C 19,4 C 14,5 C 85 % 1022,9 hPa 0,0 l/m 2 min 0 min 256 W/m 12,9 km/h (3 Bft) 100,00 %
09.11.2020 14:38 16,7 C 19,4 C 15,0 C 85 % 1022,9 hPa 0,0 l/m 2 min 0 min 264 W/m 12,9 km/h (3 Bft) 100,00 %
09.11.2020 14:40 16,8 C 20,0 C 15,0 C 84 % 1022,9 hPa 0,0 l/m 2 min 0 min 251 W/m 3,2 km/h (1 Bft) 100,00 %
09.11.2020 14:42 16,8 C 19,4 C 15,0 C 84 % 1022,9 hPa 0,0 l/m 2 min 0 min 256 W/m 6,4 km/h (2 Bft) 100,00 %
09.11.2020 14:44 16,8 C 18,3 C 15,0 C 84 % 1022,9 hPa 0,0 l/m 2 min 0 min 168 W/m 12,9 km/h (3 Bft) 100,00 %
09.11.2020 14:46 16,9 C 17,8 C 15,0 C 84 % 1022,8 hPa 0,0 l/m 0 min 0 min 112 W/m 6,4 km/h (2 Bft) 100,00 %
09.11.2020 14:48 16,9 C 17,2 C 15,0 C 84 % 1022,8 hPa 0,0 l/m 0 min 0 min 115 W/m 6,4 km/h (2 Bft) 100,00 %
09.11.2020 14:50 16,9 C 17,2 C 15,0 C 84 % 1022,8 hPa 0,0 l/m 0 min 0 min 119 W/m 12,9 km/h (3 Bft) 100,00 %
09.11.2020 14:52 16,9 C 17,8 C 15,0 C 84 % 1022,8 hPa 0,0 l/m 2 min 0 min 161 W/m 12,9 km/h (3 Bft) 100,00 %
09.11.2020 14:54 16,9 C 17,2 C 15,0 C 84 % 1022,8 hPa 0,0 l/m 2 min 0 min 130 W/m 6,4 km/h (2 Bft) 98,18 %
09.11.2020 14:56 16,9 C 17,2 C 14,5 C 84 % 1022,8 hPa 0,0 l/m 0 min 0 min 105 W/m 6,4 km/h (2 Bft) 96,00 %
09.11.2020 14:58 16,9 C 16,7 C 14,5 C 83 % 1022,8 hPa 0,0 l/m 2 min 0 min 148 W/m 6,4 km/h (2 Bft) 97,87 %
09.11.2020 15:00 16,9 C 16,7 C 14,5 C 83 % 1022,8 hPa 0,0 l/m 2 min 0 min 145 W/m 6,4 km/h (2 Bft) 97,37 %
09.11.2020 15:02 16,9 C 16,7 C 14,5 C 83 % 1022,9 hPa 0,0 l/m 0 min 0 min 92 W/m 12,9 km/h (3 Bft) 97,87 %
09.11.2020 15:04 16,9 C 16,7 C 14,5 C 83 % 1022,9 hPa 0,0 l/m 0 min 0 min 93 W/m 6,4 km/h (2 Bft) 95,74 %
09.11.2020 15:06 16,9 C 16,7 C 14,5 C 83 % 1022,9 hPa 0,0 l/m 0 min 0 min 101 W/m 3,2 km/h (1 Bft) 97,87 %
09.11.2020 15:08 16,9 C 16,7 C 14,5 C 83 % 1022,9 hPa 0,0 l/m 0 min 0 min 92 W/m 3,2 km/h (1 Bft) 97,92 %
09.11.2020 15:10 16,9 C 16,7 C 14,5 C 83 % 1022,9 hPa 0,0 l/m 0 min 0 min 76 W/m 0,0 km/h (0 Bft) 97,87 %
09.11.2020 15:12 16,8 C 16,1 C 13,9 C 83 % 1022,9 hPa 0,0 l/m 0 min 0 min 64 W/m 3,2 km/h (1 Bft) 97,87 %
09.11.2020 15:14 16,8 C 16,1 C 13,9 C 83 % 1022,9 hPa 0,0 l/m 0 min 0 min 56 W/m 6,4 km/h (2 Bft) 97,87 %
09.11.2020 15:16 16,8 C 15,6 C 13,9 C 83 % 1022,9 hPa 0,0 l/m 0 min 0 min 50 W/m 3,2 km/h (1 Bft) 97,92 %
09.11.2020 15:18 16,8 C 15,6 C 13,9 C 83 % 1022,9 hPa 0,0 l/m 0 min 0 min 46 W/m 0,0 km/h (0 Bft) 97,87 %
09.11.2020 15:20 16,8 C 15,6 C 13,9 C 83 % 1022,9 hPa 0,0 l/m 0 min 0 min 42 W/m 0,0 km/h (0 Bft) 97,67 %
09.11.2020 15:22 16,7 C 15,6 C 13,9 C 83 % 1022,9 hPa 0,0 l/m 0 min 0 min 40 W/m 3,2 km/h (1 Bft) 96,00 %
09.11.2020 15:24 16,6 C 15,6 C 13,9 C 83 % 1022,9 hPa 0,0 l/m 0 min 0 min 39 W/m 0,0 km/h (0 Bft) 97,87 %
09.11.2020 15:26 16,6 C 15,6 C 13,4 C 83 % 1022,9 hPa 0,0 l/m 0 min 0 min 37 W/m 0,0 km/h (0 Bft) 95,92 %
09.11.2020 15:28 16,6 C 15,0 C 13,4 C 83 % 1022,9 hPa 0,0 l/m 0 min 0 min 35 W/m 0,0 km/h (0 Bft) 97,87 %
09.11.2020 15:30 16,6 C 15,0 C 13,4 C 83 % 1022,9 hPa 0,0 l/m 0 min 0 min 35 W/m 3,2 km/h (1 Bft) 97,87 %
09.11.2020 15:32 16,5 C 15,0 C 13,4 C 83 % 1023,0 hPa 0,0 l/m 0 min 0 min 33 W/m 3,2 km/h (1 Bft) 98,00 %
09.11.2020 15:34 16,5 C 15,0 C 13,4 C 83 % 1023,0 hPa 0,0 l/m 0 min 0 min 33 W/m 0,0 km/h (0 Bft) 100,00 %
09.11.2020 15:36 16,5 C 15,0 C 13,4 C 83 % 1023,0 hPa 0,0 l/m 0 min 0 min 32 W/m 0,0 km/h (0 Bft) 97,87 %
09.11.2020 15:38 16,4 C 15,0 C 12,8 C 83 % 1022,9 hPa 0,0 l/m 0 min 0 min 29 W/m 0,0 km/h (0 Bft) 100,00 %
09.11.2020 15:40 16,4 C 14,4 C 12,8 C 84 % 1022,9 hPa 0,0 l/m 0 min 0 min 28 W/m 0,0 km/h (0 Bft) 97,87 %
09.11.2020 15:42 16,4 C 14,4 C 12,8 C 84 % 1022,9 hPa 0,0 l/m 0 min 0 min 26 W/m 0,0 km/h (0 Bft) 100,00 %
09.11.2020 15:44 16,3 C 14,4 C 12,2 C 84 % 1023,0 hPa 0,0 l/m 0 min 0 min 25 W/m 0,0 km/h (0 Bft) 100,00 %
09.11.2020 15:46 16,3 C 14,4 C 12,2 C 84 % 1023,0 hPa 0,0 l/m 0 min 0 min 25 W/m 0,0 km/h (0 Bft) 100,00 %
09.11.2020 15:48 16,2 C 13,9 C 12,2 C 84 % 1023,0 hPa 0,0 l/m 0 min 0 min 23 W/m 0,0 km/h (0 Bft) 95,74 %
09.11.2020 15:50 16,1 C 13,9 C 12,2 C 84 % 1023,0 hPa 0,0 l/m 0 min 0 min 23 W/m 0,0 km/h (0 Bft) 100,00 %
09.11.2020 15:52 16,0 C 13,9 C 11,7 C 84 % 1023,0 hPa 0,0 l/m 0 min 0 min 22 W/m 0,0 km/h (0 Bft) 100,00 %
09.11.2020 15:54 15,9 C 13,9 C 11,7 C 85 % 1023,0 hPa 0,0 l/m 0 min 0 min 21 W/m 0,0 km/h (0 Bft) 98,15 %
09.11.2020 15:56 15,9 C 13,3 C 11,7 C 85 % 1023,0 hPa 0,0 l/m 0 min 0 min 19 W/m 0,0 km/h (0 Bft) 100,00 %
09.11.2020 15:58 15,8 C 13,3 C 11,7 C 85 % 1023,0 hPa 0,0 l/m 0 min 0 min 19 W/m 0,0 km/h (0 Bft) 100,00 %
09.11.2020 16:00 15,7 C 12,8 C 11,7 C 85 % 1023,0 hPa 0,0 l/m 0 min 0 min 18 W/m 0,0 km/h (0 Bft) 100,00 %
09.11.2020 16:02 15,6 C 12,8 C 11,1 C 85 % 1023,0 hPa 0,0 l/m 0 min 0 min 18 W/m 0,0 km/h (0 Bft) 100,00 %
09.11.2020 16:04 15,5 C 12,8 C 11,1 C 85 % 1023,0 hPa 0,0 l/m 0 min 0 min 18 W/m 0,0 km/h (0 Bft) 100,00 %
09.11.2020 16:06 15,4 C 12,8 C 11,1 C 85 % 1022,9 hPa 0,0 l/m 0 min 0 min 18 W/m 0,0 km/h (0 Bft) 100,00 %
09.11.2020 16:08 15,4 C 12,8 C 11,1 C 86 % 1022,9 hPa 0,0 l/m 0 min 0 min 16 W/m 0,0 km/h (0 Bft) 100,00 %
09.11.2020 16:10 15,3 C 12,2 C 11,1 C 86 % 1022,9 hPa 0,0 l/m 0 min 0 min 16 W/m 0,0 km/h (0 Bft) 97,87 %
09.11.2020 16:12 15,1 C 12,2 C 11,1 C 86 % 1022,9 hPa 0,0 l/m 0 min 0 min 15 W/m 0,0 km/h (0 Bft) 100,00 %
09.11.2020 16:14 15,0 C 12,2 C 11,1 C 86 % 1022,9 hPa 0,0 l/m 0 min 0 min 14 W/m 0,0 km/h (0 Bft) 97,87 %
09.11.2020 16:16 15,0 C 12,2 C 11,1 C 86 % 1022,9 hPa 0,0 l/m 0 min 0 min 14 W/m 0,0 km/h (0 Bft) 97,96 %
09.11.2020 16:18 14,9 C 12,2 C 10,6 C 87 % 1022,9 hPa 0,0 l/m 0 min 0 min 13 W/m 0,0 km/h (0 Bft) 97,87 %
09.11.2020 16:20 14,8 C 12,2 C 10,6 C 87 % 1022,9 hPa 0,0 l/m 0 min 0 min 12 W/m 0,0 km/h (0 Bft) 95,92 %
09.11.2020 16:22 14,6 C 11,7 C 10,6 C 87 % 1022,9 hPa 0,0 l/m 0 min 0 min 12 W/m 0,0 km/h (0 Bft) 100,00 %
09.11.2020 16:24 14,6 C 11,7 C 10,6 C 87 % 1022,9 hPa 0,0 l/m 0 min 0 min 11 W/m 0,0 km/h (0 Bft) 100,00 %
09.11.2020 16:26 14,5 C 11,7 C 10,6 C 87 % 1022,9 hPa 0,0 l/m 0 min 0 min 11 W/m 0,0 km/h (0 Bft) 97,87 %
09.11.2020 16:28 14,4 C 11,7 C 10,6 C 87 % 1022,9 hPa 0,0 l/m 0 min 0 min 11 W/m 0,0 km/h (0 Bft) 97,62 %
09.11.2020 16:30 14,3 C 11,7 C 10,6 C 88 % 1022,9 hPa 0,0 l/m 0 min 0 min 9 W/m 0,0 km/h (0 Bft) 95,74 %
09.11.2020 16:32 14,2 C 11,7 C 10,6 C 88 % 1023,0 hPa 0,0 l/m 0 min 0 min 9 W/m 0,0 km/h (0 Bft) 97,87 %
09.11.2020 16:34 14,2 C 11,7 C 10,6 C 88 % 1023,0 hPa 0,0 l/m 0 min 0 min 8 W/m 0,0 km/h (0 Bft) 97,87 %
09.11.2020 16:36 14,2 C 11,7 C 10,6 C 88 % 1022,9 hPa 0,0 l/m 0 min 0 min 7 W/m 0,0 km/h (0 Bft) 96,00 %
09.11.2020 16:38 14,0 C 11,7 C 10,6 C 89 % 1023,0 hPa 0,0 l/m 0 min 0 min 7 W/m 0,0 km/h (0 Bft) 97,83 %
09.11.2020 16:40 14,0 C 11,7 C 10,0 C 89 % 1023,0 hPa 0,0 l/m 0 min 0 min 6 W/m 0,0 km/h (0 Bft) 95,74 %
09.11.2020 16:42 13,9 C 11,1 C 10,0 C 89 % 1022,9 hPa 0,0 l/m 0 min 0 min 5 W/m 0,0 km/h (0 Bft) 98,00 %
09.11.2020 16:44 13,8 C 11,1 C 10,0 C 89 % 1022,9 hPa 0,0 l/m 0 min 0 min 5 W/m 0,0 km/h (0 Bft) 95,65 %
09.11.2020 16:46 13,8 C 11,1 C 10,0 C 89 % 1022,9 hPa 0,0 l/m 0 min 0 min 5 W/m 0,0 km/h (0 Bft) 95,83 %
09.11.2020 16:48 13,7 C 11,1 C 10,0 C 89 % 1022,9 hPa 0,0 l/m 0 min 0 min 4 W/m 0,0 km/h (0 Bft) 95,83 %
09.11.2020 16:50 13,6 C 11,1 C 10,0 C 90 % 1022,9 hPa 0,0 l/m 0 min 0 min 0 W/m 0,0 km/h (0 Bft) 91,67 %
09.11.2020 16:52 13,5 C 11,1 C 10,0 C 90 % 1022,9 hPa 0,0 l/m 0 min 0 min 0 W/m 0,0 km/h (0 Bft) 95,74 %
09.11.2020 16:54 13,5 C 11,7 C 10,0 C 90 % 1022,9 hPa 0,0 l/m 0 min 0 min 0 W/m 0,0 km/h (0 Bft) 95,74 %
09.11.2020 16:56 13,5 C 11,7 C 10,0 C 90 % 1023,0 hPa 0,0 l/m 0 min 0 min 0 W/m 0,0 km/h (0 Bft) 93,75 %
09.11.2020 16:58 13,4 C 11,7 C 10,0 C 90 % 1023,0 hPa 0,0 l/m 0 min 0 min 0 W/m 0,0 km/h (0 Bft) 94,55 %
09.11.2020 17:00 13,4 C 11,7 C 10,0 C 90 % 1023,0 hPa 0,0 l/m 0 min 0 min 0 W/m 0,0 km/h (0 Bft) 91,84 %
09.11.2020 17:02 13,4 C 11,7 C 10,0 C 91 % 1023,0 hPa 0,0 l/m 0 min 0 min 0 W/m 0,0 km/h (0 Bft) 94,87 %
09.11.2020 17:04 13,3 C 11,7 C 10,0 C 91 % 1023,0 hPa 0,0 l/m 0 min 0 min 0 W/m 0,0 km/h (0 Bft) 95,65 %
09.11.2020 17:06 13,3 C 11,7 C 10,0 C 91 % 1023,0 hPa 0,0 l/m 0 min 0 min 0 W/m 0,0 km/h (0 Bft) 93,75 %
09.11.2020 17:08 13,3 C 11,7 C 10,0 C 91 % 1023,0 hPa 0,0 l/m 0 min 0 min 0 W/m 0,0 km/h (0 Bft) 97,87 %
09.11.2020 17:10 13,3 C 11,1 C 10,0 C 91 % 1023,0 hPa 0,0 l/m 0 min 0 min 0 W/m 0,0 km/h (0 Bft) 97,87 %
09.11.2020 17:12 13,2 C 11,1 C 10,0 C 91 % 1023,0 hPa 0,0 l/m 0 min 0 min 0 W/m 0,0 km/h (0 Bft) 93,75 %
09.11.2020 17:14 13,1 C 11,1 C 10,0 C 91 % 1023,0 hPa 0,0 l/m 0 min 0 min 0 W/m 0,0 km/h (0 Bft) 98,11 %
09.11.2020 17:16 13,1 C 11,1 C 10,0 C 91 % 1023,1 hPa 0,0 l/m 0 min 0 min 0 W/m 0,0 km/h (0 Bft) 97,37 %
09.11.2020 17:18 13,1 C 11,1 C 10,0 C 91 % 1023,1 hPa 0,0 l/m 0 min 0 min 0 W/m 0,0 km/h (0 Bft) 98,00 %
09.11.2020 17:20 13,1 C 11,1 C 10,0 C 91 % 1023,1 hPa 0,0 l/m 0 min 0 min 0 W/m 0,0 km/h (0 Bft) 97,87 %
09.11.2020 17:22 13,0 C 11,1 C 10,0 C 91 % 1023,1 hPa 0,0 l/m 0 min 0 min 0 W/m 0,0 km/h (0 Bft) 100,00 %
09.11.2020 17:24 13,0 C 11,1 C 10,0 C 91 % 1023,1 hPa 0,0 l/m 0 min 0 min 0 W/m 3,2 km/h (1 Bft) 95,74 %
09.11.2020 17:26 13,0 C 11,1 C 10,0 C 91 % 1023,1 hPa 0,0 l/m 0 min 0 min 0 W/m 0,0 km/h (0 Bft) 97,67 %
09.11.2020 17:28 13,0 C 11,1 C 10,0 C 91 % 1023,1 hPa 0,0 l/m 0 min 0 min 0 W/m 0,0 km/h (0 Bft) 97,87 %
09.11.2020 17:30 12,9 C 11,1 C 10,0 C 91 % 1023,1 hPa 0,0 l/m 0 min 0 min 0 W/m 0,0 km/h (0 Bft) 97,87 %
09.11.2020 17:32 12,9 C 11,1 C 10,0 C 92 % 1023,2 hPa 0,0 l/m 0 min 0 min 0 W/m 0,0 km/h (0 Bft) 97,87 %
09.11.2020 17:34 12,9 C 11,1 C 10,0 C 92 % 1023,1 hPa 0,0 l/m 0 min 0 min 0 W/m 0,0 km/h (0 Bft) 98,00 %
09.11.2020 17:36 12,9 C 11,1 C 10,0 C 92 % 1023,2 hPa 0,0 l/m 0 min 0 min 0 W/m 0,0 km/h (0 Bft) 95,65 %
09.11.2020 17:38 12,9 C 11,1 C 10,0 C 92 % 1023,2 hPa 0,0 l/m 0 min 0 min 0 W/m 0,0 km/h (0 Bft) 97,96 %
09.11.2020 17:40 12,8 C 11,1 C 10,0 C 92 % 1023,2 hPa 0,0 l/m 0 min 0 min 0 W/m 0,0 km/h (0 Bft) 97,87 %
09.11.2020 17:42 12,8 C 11,1 C 10,0 C 92 % 1023,2 hPa 0,0 l/m 0 min 0 min 0 W/m 0,0 km/h (0 Bft) 95,74 %
09.11.2020 17:44 12,8 C 11,1 C 10,0 C 92 % 1023,2 hPa 0,0 l/m 0 min 0 min 0 W/m 0,0 km/h (0 Bft) 97,83 %
09.11.2020 17:46 12,7 C 10,6 C 10,0 C 92 % 1023,2 hPa 0,0 l/m 0 min 0 min 0 W/m 0,0 km/h (0 Bft) 97,87 %
09.11.2020 17:48 12,7 C 10,6 C 10,0 C 92 % 1023,3 hPa 0,0 l/m 0 min 0 min 0 W/m 0,0 km/h (0 Bft) 95,74 %
09.11.2020 17:50 12,6 C 10,6 C 10,0 C 92 % 1023,3 hPa 0,0 l/m 0 min 0 min 0 W/m 0,0 km/h (0 Bft) 95,24 %
09.11.2020 17:52 12,6 C 10,6 C 10,0 C 92 % 1023,3 hPa 0,0 l/m 0 min 0 min 0 W/m 0,0 km/h (0 Bft) 95,74 %
09.11.2020 17:54 12,6 C 11,1 C 10,0 C 92 % 1023,4 hPa 0,0 l/m 0 min 0 min 0 W/m 0,0 km/h (0 Bft) 96,00 %
09.11.2020 17:56 12,5 C 11,1 C 10,0 C 93 % 1023,4 hPa 0,0 l/m 0 min 0 min 0 W/m 0,0 km/h (0 Bft) 95,74 %
09.11.2020 17:58 12,5 C 11,1 C 10,0 C 93 % 1023,4 hPa 0,0 l/m 0 min 0 min 0 W/m 0,0 km/h (0 Bft) 95,74 %
09.11.2020 18:00 12,5 C 11,1 C 10,0 C 93 % 1023,4 hPa 0,0 l/m 0 min 0 min 0 W/m 0,0 km/h (0 Bft) 97,83 %
09.11.2020 18:02 12,5 C 11,1 C 10,0 C 93 % 1023,4 hPa 0,0 l/m 0 min 0 min 0 W/m 0,0 km/h (0 Bft) 98,00 %
09.11.2020 18:04 12,5 C 11,1 C 10,0 C 93 % 1023,4 hPa 0,0 l/m 0 min 0 min 0 W/m 0,0 km/h (0 Bft) 95,74 %
09.11.2020 18:08 12,4 C 10,6 C 10,0 C 93 % 1023,4 hPa 0,0 l/m 0 min 0 min 0 W/m 0,0 km/h (0 Bft) 97,85 %
09.11.2020 18:10 12,4 C 10,6 C 10,0 C 93 % 1023,4 hPa 0,0 l/m 0 min 0 min 0 W/m 0,0 km/h (0 Bft) 97,62 %
09.11.2020 18:12 12,4 C 10,6 C 10,0 C 93 % 1023,5 hPa 0,0 l/m 0 min 0 min 0 W/m 0,0 km/h (0 Bft) 95,92 %
09.11.2020 18:14 12,4 C 10,6 C 9,5 C 93 % 1023,5 hPa 0,0 l/m 0 min 0 min 0 W/m 0,0 km/h (0 Bft) 94,00 %
09.11.2020 18:16 12,3 C 10,6 C 10,0 C 93 % 1023,5 hPa 0,0 l/m 0 min 0 min 0 W/m 0,0 km/h (0 Bft) 97,87 %
09.11.2020 18:18 12,3 C 10,6 C 9,5 C 93 % 1023,5 hPa 0,0 l/m 0 min 0 min 0 W/m 0,0 km/h (0 Bft) 97,83 %
09.11.2020 18:20 12,3 C 10,6 C 9,5 C 94 % 1023,4 hPa 0,0 l/m 0 min 0 min 0 W/m 0,0 km/h (0 Bft) 97,62 %
09.11.2020 18:22 12,3 C 10,6 C 9,5 C 94 % 1023,5 hPa 0,0 l/m 0 min 0 min 0 W/m 0,0 km/h (0 Bft) 98,00 %
09.11.2020 18:24 12,2 C 10,6 C 10,0 C 93 % 1023,5 hPa 0,0 l/m 0 min 0 min 0 W/m 0,0 km/h (0 Bft) 95,92 %
09.11.2020 18:26 12,2 C 10,6 C 10,0 C 93 % 1023,5 hPa 0,0 l/m 0 min 0 min 0 W/m 0,0 km/h (0 Bft) 97,87 %
09.11.2020 18:28 12,1 C 10,6 C 10,0 C 93 % 1023,5 hPa 0,0 l/m 0 min 0 min 0 W/m 0,0 km/h (0 Bft) 97,87 %
09.11.2020 18:30 12,1 C 10,6 C 10,0 C 93 % 1023,5 hPa 0,0 l/m 0 min 0 min 0 W/m 0,0 km/h (0 Bft) 97,56 %
09.11.2020 18:32 12,1 C 10,6 C 10,0 C 94 % 1023,5 hPa 0,0 l/m 0 min 0 min 0 W/m 0,0 km/h (0 Bft) 95,74 %
09.11.2020 18:34 12,1 C 10,6 C 10,0 C 94 % 1023,5 hPa 0,0 l/m 0 min 0 min 0 W/m 0,0 km/h (0 Bft) 95,74 %
09.11.2020 18:36 12,0 C 10,6 C 10,0 C 94 % 1023,5 hPa 0,0 l/m 0 min 0 min 0 W/m 0,0 km/h (0 Bft) 95,92 %
09.11.2020 18:38 12,0 C 11,1 C 10,0 C 94 % 1023,5 hPa 0,0 l/m 0 min 0 min 0 W/m 0,0 km/h (0 Bft) 96,00 %
09.11.2020 18:40 12,0 C 11,1 C 10,0 C 94 % 1023,5 hPa 0,0 l/m 0 min 0 min 0 W/m 0,0 km/h (0 Bft) 97,83 %
09.11.2020 18:42 12,0 C 11,1 C 10,0 C 94 % 1023,6 hPa 0,0 l/m 0 min 0 min 0 W/m 0,0 km/h (0 Bft) 100,00 %
09.11.2020 18:44 12,0 C 11,1 C 10,0 C 94 % 1023,5 hPa 0,0 l/m 0 min 0 min 0 W/m 0,0 km/h (0 Bft) 100,00 %
09.11.2020 18:46 12,0 C 10,6 C 10,0 C 94 % 1023,5 hPa 0,0 l/m 0 min 0 min 0 W/m 0,0 km/h (0 Bft) 95,35 %
09.11.2020 18:48 11,9 C 10,6 C 10,0 C 94 % 1023,5 hPa 0,0 l/m 0 min 0 min 0 W/m 0,0 km/h (0 Bft) 95,74 %
09.11.2020 18:50 11,9 C 10,6 C 10,0 C 94 % 1023,5 hPa 0,0 l/m 0 min 0 min 0 W/m 0,0 km/h (0 Bft) 95,74 %
09.11.2020 18:52 11,9 C 10,6 C 10,0 C 94 % 1023,5 hPa 0,0 l/m 0 min 0 min 0 W/m 0,0 km/h (0 Bft) 95,74 %
09.11.2020 18:54 11,9 C 10,6 C 10,0 C 94 % 1023,5 hPa 0,0 l/m 0 min 0 min 0 W/m 0,0 km/h (0 Bft) 98,00 %
09.11.2020 18:56 11,9 C 10,6 C 10,0 C 94 % 1023,4 hPa 0,0 l/m 0 min 0 min 0 W/m 0,0 km/h (0 Bft) 95,92 %
09.11.2020 18:58 11,9 C 10,6 C 10,0 C 94 % 1023,5 hPa 0,0 l/m 0 min 0 min 0 W/m 0,0 km/h (0 Bft) 97,87 %
09.11.2020 19:00 11,9 C 10,6 C 10,0 C 94 % 1023,4 hPa 0,0 l/m 0 min 0 min 0 W/m 0,0 km/h (0 Bft) 97,14 %
09.11.2020 19:02 11,9 C 10,6 C 10,0 C 94 % 1023,4 hPa 0,0 l/m 0 min 0 min 0 W/m 0,0 km/h (0 Bft) 98,11 %
09.11.2020 19:04 11,9 C 10,6 C 10,0 C 94 % 1023,4 hPa 0,0 l/m 0 min 0 min 0 W/m 3,2 km/h (1 Bft) 97,87 %
09.11.2020 19:06 11,9 C 11,1 C 10,0 C 94 % 1023,4 hPa 0,0 l/m 0 min 0 min 0 W/m 3,2 km/h (1 Bft) 98,00 %
09.11.2020 19:08 11,8 C 11,1 C 10,0 C 94 % 1023,4 hPa 0,0 l/m 0 min 0 min 0 W/m 6,4 km/h (2 Bft) 97,96 %
09.11.2020 19:10 11,9 C 11,1 C 10,0 C 94 % 1023,4 hPa 0,0 l/m 0 min 0 min 0 W/m 3,2 km/h (1 Bft) 97,87 %
09.11.2020 19:12 11,9 C 11,1 C 10,0 C 94 % 1023,4 hPa 0,0 l/m 0 min 0 min 0 W/m 0,0 km/h (0 Bft) 97,87 %
09.11.2020 19:14 11,9 C 11,1 C 10,0 C 94 % 1023,4 hPa 0,0 l/m 0 min 0 min 0 W/m 3,2 km/h (1 Bft) 97,87 %
09.11.2020 19:16 11,9 C 11,1 C 10,0 C 94 % 1023,4 hPa 0,0 l/m 0 min 0 min 0 W/m 3,2 km/h (1 Bft) 97,14 %
09.11.2020 19:18 11,9 C 11,1 C 10,0 C 94 % 1023,4 hPa 0,0 l/m 0 min 0 min 0 W/m 0,0 km/h (0 Bft) 98,11 %
09.11.2020 19:20 11,9 C 11,1 C 10,0 C 94 % 1023,4 hPa 0,0 l/m 0 min 0 min 0 W/m 0,0 km/h (0 Bft) 95,74 %
09.11.2020 19:22 11,9 C 11,1 C 10,0 C 95 % 1023,4 hPa 0,0 l/m 0 min 0 min 0 W/m 0,0 km/h (0 Bft) 97,83 %
09.11.2020 19:24 11,9 C 11,1 C 10,0 C 95 % 1023,4 hPa 0,0 l/m 0 min 0 min 0 W/m 0,0 km/h (0 Bft) 98,00 %
09.11.2020 19:26 11,9 C 11,1 C 10,0 C 95 % 1023,4 hPa 0,0 l/m 0 min 0 min 0 W/m 0,0 km/h (0 Bft) 98,00 %
09.11.2020 19:28 11,9 C 11,1 C 10,0 C 95 % 1023,5 hPa 0,0 l/m 0 min 0 min 0 W/m 3,2 km/h (1 Bft) 100,00 %
09.11.2020 19:30 11,9 C 11,1 C 10,0 C 95 % 1023,4 hPa 0,0 l/m 0 min 0 min 0 W/m 0,0 km/h (0 Bft) 100,00 %
09.11.2020 19:32 11,9 C 11,1 C 10,0 C 95 % 1023,4 hPa 0,0 l/m 0 min 0 min 0 W/m 0,0 km/h (0 Bft) 100,00 %
09.11.2020 19:34 11,9 C 11,1 C 10,0 C 95 % 1023,4 hPa 0,0 l/m 0 min 0 min 0 W/m 0,0 km/h (0 Bft) 100,00 %
09.11.2020 19:36 11,9 C 11,1 C 10,0 C 95 % 1023,4 hPa 0,0 l/m 0 min 0 min 0 W/m 0,0 km/h (0 Bft) 100,00 %
09.11.2020 19:38 11,9 C 11,1 C 10,0 C 95 % 1023,4 hPa 0,0 l/m 0 min 0 min 0 W/m 0,0 km/h (0 Bft) 100,00 %
09.11.2020 19:40 11,9 C 10,6 C 10,0 C 95 % 1023,4 hPa 0,0 l/m 0 min 0 min 0 W/m 0,0 km/h (0 Bft) 100,00 %
09.11.2020 19:42 11,9 C 10,6 C 10,0 C 95 % 1023,4 hPa 0,0 l/m 0 min 0 min 0 W/m 0,0 km/h (0 Bft) 100,00 %
09.11.2020 19:44 11,9 C 11,1 C 10,0 C 95 % 1023,5 hPa 0,0 l/m 0 min 0 min 0 W/m 0,0 km/h (0 Bft) 100,00 %
09.11.2020 19:46 11,9 C 11,1 C 10,0 C 95 % 1023,5 hPa 0,0 l/m 0 min 0 min 0 W/m 0,0 km/h (0 Bft) 100,00 %
09.11.2020 19:48 11,9 C 11,1 C 10,0 C 95 % 1023,5 hPa 0,0 l/m 0 min 0 min 0 W/m 0,0 km/h (0 Bft) 100,00 %
09.11.2020 19:50 11,9 C 11,1 C 10,0 C 95 % 1023,5 hPa 0,0 l/m 0 min 0 min 0 W/m 0,0 km/h (0 Bft) 100,00 %
09.11.2020 19:52 11,9 C 11,1 C 10,0 C 95 % 1023,5 hPa 0,0 l/m 0 min 0 min 0 W/m 0,0 km/h (0 Bft) 100,00 %
09.11.2020 19:54 11,9 C 11,1 C 10,0 C 95 % 1023,5 hPa 0,0 l/m 0 min 0 min 0 W/m 0,0 km/h (0 Bft) 100,00 %
09.11.2020 19:56 11,9 C 11,1 C 10,0 C 95 % 1023,5 hPa 0,0 l/m 0 min 0 min 0 W/m 0,0 km/h (0 Bft) 100,00 %
09.11.2020 19:58 11,9 C 11,1 C 10,0 C 95 % 1023,5 hPa 0,0 l/m 0 min 0 min 0 W/m 0,0 km/h (0 Bft) 100,00 %
09.11.2020 20:00 11,9 C 11,1 C 9,5 C 95 % 1023,6 hPa 0,0 l/m 0 min 0 min 0 W/m 0,0 km/h (0 Bft) 100,00 %
09.11.2020 20:02 11,9 C 11,1 C 9,5 C 95 % 1023,5 hPa 0,0 l/m 0 min 0 min 0 W/m 0,0 km/h (0 Bft) 96,00 %
09.11.2020 20:04 11,9 C 10,6 C 9,5 C 95 % 1023,5 hPa 0,0 l/m 0 min 0 min 0 W/m 0,0 km/h (0 Bft) 100,00 %
09.11.2020 20:06 11,8 C 10,6 C 9,5 C 95 % 1023,5 hPa 0,0 l/m 0 min 0 min 0 W/m 0,0 km/h (0 Bft) 97,87 %
09.11.2020 20:08 11,8 C 10,6 C 9,5 C 95 % 1023,5 hPa 0,0 l/m 0 min 0 min 0 W/m 0,0 km/h (0 Bft) 98,18 %
09.11.2020 20:10 11,8 C 10,6 C 9,5 C 95 % 1023,5 hPa 0,0 l/m 0 min 0 min 0 W/m 0,0 km/h (0 Bft) 100,00 %
09.11.2020 20:12 11,8 C 10,6 C 9,5 C 95 % 1023,5 hPa 0,0 l/m 0 min 0 min 0 W/m 0,0 km/h (0 Bft) 97,87 %
09.11.2020 20:14 11,8 C 10,6 C 9,5 C 95 % 1023,5 hPa 0,0 l/m 0 min 0 min 0 W/m 0,0 km/h (0 Bft) 100,00 %
09.11.2020 20:16 11,8 C 10,0 C 9,5 C 95 % 1023,5 hPa 0,0 l/m 0 min 0 min 0 W/m 0,0 km/h (0 Bft) 97,14 %
09.11.2020 20:18 11,8 C 10,0 C 9,5 C 95 % 1023,5 hPa 0,0 l/m 0 min 0 min 0 W/m 0,0 km/h (0 Bft) 100,00 %
09.11.2020 20:20 11,7 C 10,0 C 8,9 C 95 % 1023,5 hPa 0,0 l/m 0 min 0 min 0 W/m 0,0 km/h (0 Bft) 100,00 %
09.11.2020 20:22 11,7 C 10,0 C 8,9 C 95 % 1023,5 hPa 0,0 l/m 0 min 0 min 0 W/m 0,0 km/h (0 Bft) 100,00 %
09.11.2020 20:24 11,6 C 9,4 C 8,9 C 95 % 1023,5 hPa 0,0 l/m 0 min 0 min 0 W/m 0,0 km/h (0 Bft) 100,00 %
09.11.2020 20:26 11,6 C 9,4 C 8,9 C 95 % 1023,5 hPa 0,0 l/m 0 min 0 min 0 W/m 0,0 km/h (0 Bft) 97,37 %
09.11.2020 20:28 11,5 C 10,0 C 8,9 C 95 % 1023,5 hPa 0,0 l/m 0 min 0 min 0 W/m 0,0 km/h (0 Bft) 97,83 %
09.11.2020 20:30 11,5 C 10,0 C 8,9 C 95 % 1023,5 hPa 0,0 l/m 0 min 0 min 0 W/m 0,0 km/h (0 Bft) 100,00 %
09.11.2020 20:32 11,5 C 10,0 C 8,9 C 95 % 1023,5 hPa 0,0 l/m 0 min 0 min 0 W/m 0,0 km/h (0 Bft) 100,00 %
09.11.2020 20:34 11,5 C 9,4 C 8,9 C 95 % 1023,6 hPa 0,0 l/m 0 min 0 min 0 W/m 0,0 km/h (0 Bft) 100,00 %
09.11.2020 20:36 11,4 C 9,4 C 8,9 C 95 % 1023,6 hPa 0,0 l/m 0 min 0 min 0 W/m 0,0 km/h (0 Bft) 100,00 %
09.11.2020 20:38 11,4 C 9,4 C 8,9 C 95 % 1023,6 hPa 0,0 l/m 0 min 0 min 0 W/m 0,0 km/h (0 Bft) 97,14 %
09.11.2020 20:40 11,4 C 9,4 C 8,9 C 95 % 1023,5 hPa 0,0 l/m 0 min 0 min 0 W/m 0,0 km/h (0 Bft) 100,00 %
09.11.2020 20:42 11,3 C 9,4 C 8,9 C 95 % 1023,5 hPa 0,0 l/m 0 min 0 min 0 W/m 0,0 km/h (0 Bft) 100,00 %
09.11.2020 20:44 11,3 C 9,4 C 8,4 C 95 % 1023,4 hPa 0,0 l/m 0 min 0 min 0 W/m 0,0 km/h (0 Bft) 97,92 %
09.11.2020 20:46 11,3 C 9,4 C 8,4 C 95 % 1023,4 hPa 0,0 l/m 0 min 0 min 0 W/m 0,0 km/h (0 Bft) 100,00 %
09.11.2020 20:48 11,2 C 8,9 C 8,4 C 95 % 1023,4 hPa 0,0 l/m 0 min 0 min 0 W/m 0,0 km/h (0 Bft) 97,92 %
09.11.2020 20:50 11,1 C 8,9 C 8,4 C 95 % 1023,4 hPa 0,0 l/m 0 min 0 min 0 W/m 0,0 km/h (0 Bft) 97,87 %
09.11.2020 20:52 11,1 C 8,9 C 8,4 C 95 % 1023,4 hPa 0,0 l/m 0 min 0 min 0 W/m 0,0 km/h (0 Bft) 93,75 %
09.11.2020 20:54 11,0 C 8,9 C 8,4 C 95 % 1023,4 hPa 0,0 l/m 0 min 0 min 0 W/m 0,0 km/h (0 Bft) 93,75 %
09.11.2020 20:56 11,0 C 9,4 C 8,4 C 95 % 1023,4 hPa 0,0 l/m 0 min 0 min 0 W/m 0,0 km/h (0 Bft) 97,83 %
09.11.2020 20:58 11,0 C 9,4 C 8,4 C 95 % 1023,5 hPa 0,0 l/m 0 min 0 min 0 W/m 0,0 km/h (0 Bft) 97,67 %
09.11.2020 21:00 10,9 C 9,4 C 8,4 C 95 % 1023,5 hPa 0,0 l/m 0 min 0 min 0 W/m 0,0 km/h (0 Bft) 95,74 %
09.11.2020 21:02 10,9 C 9,4 C 8,4 C 95 % 1023,5 hPa 0,0 l/m 0 min 0 min 0 W/m 0,0 km/h (0 Bft) 95,92 %
09.11.2020 21:04 10,9 C 9,4 C 8,4 C 95 % 1023,5 hPa 0,0 l/m 0 min 0 min 0 W/m 0,0 km/h (0 Bft) 93,02 %
09.11.2020 21:06 10,8 C 10,0 C 8,9 C 95 % 1023,6 hPa 0,0 l/m 0 min 0 min 0 W/m 6,4 km/h (2 Bft) 93,75 %
09.11.2020 21:08 10,8 C 10,0 C 8,9 C 95 % 1023,6 hPa 0,0 l/m 0 min 0 min 0 W/m 0,0 km/h (0 Bft) 95,83 %
09.11.2020 21:10 10,8 C 10,0 C 8,9 C 95 % 1023,6 hPa 0,0 l/m 0 min 0 min 0 W/m 0,0 km/h (0 Bft) 91,67 %
09.11.2020 21:12 10,8 C 10,0 C 8,9 C 95 % 1023,5 hPa 0,0 l/m 0 min 0 min 0 W/m 0,0 km/h (0 Bft) 93,75 %
09.11.2020 21:14 10,8 C 10,0 C 8,9 C 95 % 1023,6 hPa 0,0 l/m 0 min 0 min 0 W/m 0,0 km/h (0 Bft) 93,62 %
09.11.2020 21:16 10,8 C 9,4 C 8,9 C 95 % 1023,7 hPa 0,0 l/m 0 min 0 min 0 W/m 0,0 km/h (0 Bft) 91,67 %
09.11.2020 21:18 10,8 C 9,4 C 8,9 C 95 % 1023,6 hPa 0,0 l/m 0 min 0 min 0 W/m 0,0 km/h (0 Bft) 91,30 %
09.11.2020 21:20 10,8 C 9,4 C 8,4 C 95 % 1023,6 hPa 0,0 l/m 0 min 0 min 0 W/m 0,0 km/h (0 Bft) 93,62 %
09.11.2020 21:22 10,8 C 8,9 C 8,4 C 95 % 1023,6 hPa 0,0 l/m 0 min 0 min 0 W/m 0,0 km/h (0 Bft) 93,62 %
09.11.2020 21:24 10,7 C 8,9 C 8,4 C 95 % 1023,7 hPa 0,0 l/m 0 min 0 min 0 W/m 0,0 km/h (0 Bft) 93,62 %
09.11.2020 21:26 10,7 C 8,9 C 8,4 C 95 % 1023,6 hPa 0,0 l/m 0 min 0 min 0 W/m 0,0 km/h (0 Bft) 91,49 %
09.11.2020 21:28 10,7 C 8,9 C 8,4 C 95 % 1023,7 hPa 0,0 l/m 0 min 0 min 0 W/m 0,0 km/h (0 Bft) 95,12 %
09.11.2020 21:30 10,6 C 9,4 C 8,4 C 95 % 1023,7 hPa 0,0 l/m 0 min 0 min 0 W/m 0,0 km/h (0 Bft) 91,67 %
09.11.2020 21:32 10,6 C 9,4 C 8,4 C 95 % 1023,7 hPa 0,0 l/m 0 min 0 min 0 W/m 0,0 km/h (0 Bft) 87,50 %
09.11.2020 21:34 10,6 C 9,4 C 8,4 C 95 % 1023,7 hPa 0,0 l/m 0 min 0 min 0 W/m 0,0 km/h (0 Bft) 93,75 %
09.11.2020 21:36 10,6 C 9,4 C 8,4 C 95 % 1023,7 hPa 0,0 l/m 0 min 0 min 0 W/m 0,0 km/h (0 Bft) 93,75 %
09.11.2020 21:38 10,6 C 9,4 C 8,4 C 95 % 1023,7 hPa 0,0 l/m 0 min 0 min 0 W/m 0,0 km/h (0 Bft) 91,67 %
09.11.2020 21:40 10,6 C 9,4 C 8,4 C 95 % 1023,7 hPa 0,0 l/m 0 min 0 min 0 W/m 0,0 km/h (0 Bft) 89,36 %
09.11.2020 21:42 10,5 C 9,4 C 8,4 C 95 % 1023,7 hPa 0,0 l/m 0 min 0 min 0 W/m 0,0 km/h (0 Bft) 95,65 %
09.11.2020 21:44 10,5 C 9,4 C 8,4 C 95 % 1023,7 hPa 0,0 l/m 0 min 0 min 0 W/m 0,0 km/h (0 Bft) 95,74 %
09.11.2020 21:46 10,5 C 8,9 C 8,4 C 95 % 1023,8 hPa 0,0 l/m 0 min 0 min 0 W/m 0,0 km/h (0 Bft) 93,62 %
09.11.2020 21:48 10,5 C 8,9 C 8,4 C 95 % 1023,8 hPa 0,0 l/m 0 min 0 min 0 W/m 0,0 km/h (0 Bft) 97,87 %
09.11.2020 21:50 10,5 C 8,9 C 8,4 C 95 % 1023,9 hPa 0,0 l/m 0 min 0 min 0 W/m 0,0 km/h (0 Bft) 97,87 %
09.11.2020 21:52 10,5 C 8,9 C 8,4 C 95 % 1023,9 hPa 0,0 l/m 0 min 0 min 0 W/m 0,0 km/h (0 Bft) 93,62 %
09.11.2020 21:54 10,4 C 8,9 C 8,4 C 95 % 1023,8 hPa 0,0 l/m 0 min 0 min 0 W/m 0,0 km/h (0 Bft) 97,83 %
09.11.2020 21:56 10,4 C 8,9 C 8,4 C 95 % 1023,8 hPa 0,0 l/m 0 min 0 min 0 W/m 0,0 km/h (0 Bft) 95,74 %
09.11.2020 21:58 10,4 C 8,9 C 8,4 C 95 % 1023,8 hPa 0,0 l/m 0 min 0 min 0 W/m 0,0 km/h (0 Bft) 97,73 %
09.11.2020 22:00 10,4 C 8,3 C 8,4 C 95 % 1023,8 hPa 0,0 l/m 0 min 0 min 0 W/m 0,0 km/h (0 Bft) 97,83 %
09.11.2020 22:02 10,4 C 8,3 C 7,8 C 95 % 1023,8 hPa 0,0 l/m 0 min 0 min 0 W/m 0,0 km/h (0 Bft) 95,74 %
09.11.2020 22:04 10,3 C 8,3 C 7,8 C 95 % 1023,8 hPa 0,0 l/m 0 min 0 min 0 W/m 0,0 km/h (0 Bft) 96,00 %
09.11.2020 22:06 10,3 C 8,3 C 7,8 C 95 % 1023,8 hPa 0,0 l/m 0 min 0 min 0 W/m 0,0 km/h (0 Bft) 93,62 %
09.11.2020 22:08 10,3 C 8,3 C 7,8 C 95 % 1023,8 hPa 0,0 l/m 0 min 0 min 0 W/m 0,0 km/h (0 Bft) 97,87 %
09.11.2020 22:10 10,2 C 8,3 C 7,8 C 95 % 1023,8 hPa 0,0 l/m 0 min 0 min 0 W/m 0,0 km/h (0 Bft) 97,87 %
09.11.2020 22:12 10,2 C 8,3 C 7,8 C 95 % 1023,7 hPa 0,0 l/m 0 min 0 min 0 W/m 0,0 km/h (0 Bft) 100,00 %
09.11.2020 22:14 10,1 C 8,9 C 7,8 C 95 % 1023,8 hPa 0,0 l/m 0 min 0 min 0 W/m 3,2 km/h (1 Bft) 100,00 %
09.11.2020 22:16 10,1 C 9,4 C 7,8 C 95 % 1023,7 hPa 0,0 l/m 0 min 0 min 0 W/m 3,2 km/h (1 Bft) 97,87 %
09.11.2020 22:18 10,1 C 9,4 C 8,4 C 95 % 1023,7 hPa 0,0 l/m 0 min 0 min 0 W/m 6,4 km/h (2 Bft) 100,00 %
09.11.2020 22:20 10,1 C 9,4 C 8,4 C 95 % 1023,7 hPa 0,0 l/m 0 min 0 min 0 W/m 6,4 km/h (2 Bft) 97,87 %
09.11.2020 22:22 10,1 C 10,0 C 8,4 C 96 % 1023,7 hPa 0,0 l/m 0 min 0 min 0 W/m 0,0 km/h (0 Bft) 100,00 %
09.11.2020 22:24 10,2 C 10,0 C 8,9 C 96 % 1023,6 hPa 0,0 l/m 0 min 0 min 0 W/m 12,9 km/h (3 Bft) 100,00 %
09.11.2020 22:26 10,3 C 10,0 C 8,9 C 96 % 1023,7 hPa 0,0 l/m 0 min 0 min 0 W/m 6,4 km/h (2 Bft) 97,87 %
09.11.2020 22:28 10,3 C 10,0 C 9,5 C 96 % 1023,7 hPa 0,0 l/m 0 min 0 min 0 W/m 12,9 km/h (3 Bft) 100,00 %
09.11.2020 22:30 10,4 C 10,0 C 9,5 C 96 % 1023,6 hPa 0,0 l/m 0 min 0 min 0 W/m 3,2 km/h (1 Bft) 100,00 %
09.11.2020 22:32 10,5 C 10,6 C 9,5 C 96 % 1023,6 hPa 0,0 l/m 0 min 0 min 0 W/m 6,4 km/h (2 Bft) 100,00 %
09.11.2020 22:34 10,5 C 10,6 C 10,0 C 97 % 1023,7 hPa 0,0 l/m 0 min 0 min 0 W/m 6,4 km/h (2 Bft) 100,00 %
09.11.2020 22:36 10,6 C 10,6 C 10,0 C 97 % 1023,7 hPa 0,0 l/m 0 min 0 min 0 W/m 6,4 km/h (2 Bft) 95,74 %
09.11.2020 22:38 10,7 C 10,6 C 10,0 C 97 % 1023,7 hPa 0,0 l/m 0 min 0 min 0 W/m 6,4 km/h (2 Bft) 100,00 %
09.11.2020 22:40 10,8 C 10,6 C 10,0 C 97 % 1023,7 hPa 0,0 l/m 0 min 0 min 0 W/m 6,4 km/h (2 Bft) 100,00 %
09.11.2020 22:42 10,8 C 10,6 C 10,0 C 97 % 1023,7 hPa 0,0 l/m 0 min 0 min 0 W/m 6,4 km/h (2 Bft) 100,00 %
09.11.2020 22:44 10,8 C 10,6 C 10,0 C 97 % 1023,7 hPa 0,0 l/m 0 min 0 min 0 W/m 3,2 km/h (1 Bft) 100,00 %
09.11.2020 22:46 10,9 C 10,6 C 10,0 C 97 % 1023,7 hPa 0,0 l/m 0 min 0 min 0 W/m 6,4 km/h (2 Bft) 100,00 %
09.11.2020 22:48 10,9 C 10,6 C 10,0 C 97 % 1023,7 hPa 0,0 l/m 0 min 0 min 0 W/m 0,0 km/h (0 Bft) 100,00 %
09.11.2020 22:50 10,9 C 10,6 C 10,0 C 97 % 1023,7 hPa 0,0 l/m 0 min 0 min 0 W/m 12,9 km/h (3 Bft) 100,00 %
09.11.2020 22:52 10,9 C 10,6 C 10,0 C 97 % 1023,7 hPa 0,0 l/m 0 min 0 min 0 W/m 12,9 km/h (3 Bft) 97,92 %
09.11.2020 22:54 10,9 C 10,6 C 10,0 C 97 % 1023,7 hPa 0,0 l/m 0 min 0 min 0 W/m 16,1 km/h (3 Bft) 97,92 %
09.11.2020 22:56 10,9 C 10,6 C 10,0 C 97 % 1023,8 hPa 0,0 l/m 0 min 0 min 0 W/m 3,2 km/h (1 Bft) 100,00 %
09.11.2020 22:58 11,0 C 10,6 C 10,0 C 97 % 1023,8 hPa 0,0 l/m 0 min 0 min 0 W/m 6,4 km/h (2 Bft) 100,00 %
09.11.2020 23:00 11,0 C 10,6 C 10,0 C 97 % 1023,8 hPa 0,0 l/m 0 min 0 min 0 W/m 6,4 km/h (2 Bft) 100,00 %
09.11.2020 23:02 11,0 C 10,6 C 10,0 C 97 % 1023,8 hPa 0,0 l/m 0 min 0 min 0 W/m 12,9 km/h (3 Bft) 100,00 %
09.11.2020 23:04 11,0 C 10,6 C 10,0 C 97 % 1023,8 hPa 0,0 l/m 0 min 0 min 0 W/m 6,4 km/h (2 Bft) 100,00 %
09.11.2020 23:06 11,0 C 10,6 C 10,0 C 97 % 1023,8 hPa 0,0 l/m 0 min 0 min 0 W/m 12,9 km/h (3 Bft) 56,52 %
09.11.2020 23:08 11,0 C 10,6 C 10,0 C 97 % 1023,8 hPa 0,0 l/m 0 min 0 min 0 W/m 6,4 km/h (2 Bft) 100,00 %
09.11.2020 23:10 11,0 C 10,6 C 10,0 C 97 % 1023,8 hPa 0,0 l/m 0 min 0 min 0 W/m 16,1 km/h (3 Bft) 100,00 %
09.11.2020 23:12 11,0 C 10,6 C 10,0 C 97 % 1023,9 hPa 0,0 l/m 0 min 0 min 0 W/m 3,2 km/h (1 Bft) 100,00 %
09.11.2020 23:14 11,0 C 10,6 C 10,0 C 97 % 1023,9 hPa 0,0 l/m 0 min 0 min 0 W/m 12,9 km/h (3 Bft) 100,00 %
09.11.2020 23:16 10,9 C 10,0 C 10,0 C 97 % 1023,9 hPa 0,0 l/m 0 min 0 min 0 W/m 6,4 km/h (2 Bft) 100,00 %
09.11.2020 23:18 10,9 C 10,6 C 10,0 C 97 % 1023,9 hPa 0,0 l/m 0 min 0 min 0 W/m 16,1 km/h (3 Bft) 100,00 %
09.11.2020 23:20 10,9 C 10,6 C 10,0 C 97 % 1023,8 hPa 0,0 l/m 0 min 0 min 0 W/m 6,4 km/h (2 Bft) 97,87 %
09.11.2020 23:22 10,9 C 10,0 C 10,0 C 97 % 1023,8 hPa 0,0 l/m 0 min 0 min 0 W/m 6,4 km/h (2 Bft) 97,83 %
09.11.2020 23:24 10,9 C 10,0 C 10,0 C 97 % 1023,8 hPa 0,0 l/m 0 min 0 min 0 W/m 6,4 km/h (2 Bft) 100,00 %
09.11.2020 23:26 10,9 C 10,0 C 9,5 C 97 % 1023,9 hPa 0,0 l/m 0 min 0 min 0 W/m 3,2 km/h (1 Bft) 100,00 %
09.11.2020 23:28 10,9 C 10,0 C 9,5 C 97 % 1023,8 hPa 0,0 l/m 0 min 0 min 0 W/m 3,2 km/h (1 Bft) 100,00 %
09.11.2020 23:30 10,9 C 10,0 C 9,5 C 97 % 1023,9 hPa 0,0 l/m 0 min 0 min 0 W/m 3,2 km/h (1 Bft) 97,87 %
09.11.2020 23:32 10,9 C 10,0 C 9,5 C 97 % 1023,8 hPa 0,0 l/m 0 min 0 min 0 W/m 0,0 km/h (0 Bft) 97,87 %
09.11.2020 23:34 10,9 C 10,0 C 9,5 C 97 % 1023,8 hPa 0,0 l/m 0 min 0 min 0 W/m 6,4 km/h (2 Bft) 100,00 %
09.11.2020 23:36 10,8 C 10,0 C 9,5 C 97 % 1023,8 hPa 0,0 l/m 0 min 0 min 0 W/m 3,2 km/h (1 Bft) 100,00 %
09.11.2020 23:38 10,8 C 10,0 C 9,5 C 97 % 1023,8 hPa 0,0 l/m 0 min 0 min 0 W/m 6,4 km/h (2 Bft) 97,62 %
09.11.2020 23:40 10,8 C 10,0 C 9,5 C 97 % 1023,8 hPa 0,0 l/m 0 min 0 min 0 W/m 0,0 km/h (0 Bft) 95,83 %
09.11.2020 23:42 10,8 C 10,0 C 9,5 C 97 % 1023,8 hPa 0,0 l/m 0 min 0 min 0 W/m 3,2 km/h (1 Bft) 97,92 %
09.11.2020 23:44 10,8 C 10,0 C 9,5 C 97 % 1023,8 hPa 0,0 l/m 0 min 0 min 0 W/m 3,2 km/h (1 Bft) 95,74 %
09.11.2020 23:46 10,8 C 10,0 C 9,5 C 97 % 1023,9 hPa 0,0 l/m 0 min 0 min 0 W/m 3,2 km/h (1 Bft) 93,75 %
09.11.2020 23:48 10,7 C 10,0 C 9,5 C 97 % 1023,8 hPa 0,0 l/m 0 min 0 min 0 W/m 6,4 km/h (2 Bft) 95,83 %
09.11.2020 23:50 10,7 C 10,0 C 9,5 C 97 % 1023,9 hPa 0,0 l/m 0 min 0 min 0 W/m 3,2 km/h (1 Bft) 93,62 %
09.11.2020 23:52 10,6 C 10,0 C 9,5 C 97 % 1023,8 hPa 0,0 l/m 0 min 0 min 0 W/m 16,1 km/h (3 Bft) 95,74 %
09.11.2020 23:54 10,6 C 10,0 C 9,5 C 97 % 1023,8 hPa 0,0 l/m 0 min 0 min 0 W/m 6,4 km/h (2 Bft) 95,74 %
09.11.2020 23:56 10,6 C 10,0 C 9,5 C 97 % 1023,8 hPa 0,0 l/m 0 min 0 min 0 W/m 16,1 km/h (3 Bft) 95,74 %
09.11.2020 23:58 10,6 C 10,0 C 9,5 C 97 % 1023,8 hPa 0,0 l/m 0 min 0 min 0 W/m 6,4 km/h (2 Bft) 95,12 %
_ Min-Zeit 22:14 22:00 22:02 14:58 05:26 - - - - 00:04 03:56
Minimum _ 10,1 C 8,3 C 7,8 C 83 % 1022,2 hPa - - - - 0,0 km/h (0 Bft) 55,32 %
_ Max-Zeit 14:46 11:52 13:56 09:08 21:50 00:50 10:56 00:00 11:42 14:04 00:08
Maximum _ 16,9 C 21,1 C 15,0 C 98 % 1023,9 hPa 0,2 l/m 4 min 2 min 451 W/m 22,5 km/h
SO (4 Bft)
100,00 %
Durchschnitt _ 12,3 C 11,8 C 10,6 C 94 % 1023,3 hPa #0,4 l/m #1:54 h #1:02 h 117 W/m 3,3 km/h (1 Bft) 97,37 %
© 2020 W. Hausmann